Observation data for Lomax on 04/22/2019      Previous  Date  Next       Current Mesonet Observations  Soil Data  Daily Summary Page  Observations in Plain Language
KLO1 220500Z 18017KT 22/14 A2992 RMK A01 T02180142  RH  062%=      5-min Rain = 0
KLO1 220501Z 19016KT 22/14 A2992 RMK A01 T02180142  RH  062%=      5-min Rain = 0
KLO1 220502Z 18016KT 22/14 A2992 RMK A01 T02170142  RH  062%=      5-min Rain = 0
KLO1 220503Z 18017KT 22/14 A2992 RMK A01 T02170142  RH  062%=      5-min Rain = 0
KLO1 220504Z 19016G21KT 22/14 A2991 RMK A01 T02170142  RH  062%=      5-min Rain = 0
KLO1 220505Z 19015KT 22/14 A2992 RMK A01 T02170142  RH  062%=      5-min Rain = 0
KLO1 220506Z 18021KT 22/14 A2991 RMK A01 T02160142  RH  063%=      5-min Rain = 0
KLO1 220507Z 18020KT 22/14 A2991 RMK A01 T02170142  RH  062%=      5-min Rain = 0
KLO1 220508Z 19018KT 22/14 A2992 RMK A01 T02170142  RH  062%=      5-min Rain = 0
KLO1 220509Z 18017KT 22/14 A2992 RMK A01 T02170142  RH  062%=      5-min Rain = 0
KLO1 220510Z 18018KT 22/14 A2992 RMK A01 T02170142  RH  062%=      5-min Rain = 0
KLO1 220511Z 18019KT 22/14 A2992 RMK A01 T02170142  RH  062%=      5-min Rain = 0
KLO1 220512Z 18017KT 22/14 A2992 RMK A01 T02170142  RH  062%=      5-min Rain = 0
KLO1 220513Z 18018KT 22/14 A2992 RMK A01 T02170142  RH  062%=      5-min Rain = 0
KLO1 220514Z 19017KT 22/14 A2992 RMK A01 T02170142  RH  062%=      5-min Rain = 0
KLO1 220515Z 19017KT 22/14 A2992 RMK A01 T02160142  RH  063%=      5-min Rain = 0
KLO1 220516Z 19017KT 22/14 A2992 RMK A01 T02160142  RH  063%=      5-min Rain = 0
KLO1 220517Z 18015KT 22/14 A2992 RMK A01 T02160142  RH  063%=      5-min Rain = 0
KLO1 220518Z 18015KT 22/14 A2991 RMK A01 T02160142  RH  063%=      5-min Rain = 0
KLO1 220519Z 18015KT 22/14 A2991 RMK A01 T02150142  RH  063%=      5-min Rain = 0
KLO1 220520Z 19017KT 22/14 A2991 RMK A01 T02150142  RH  063%=      5-min Rain = 0
KLO1 220521Z 18016KT 22/14 A2991 RMK A01 T02150142  RH  063%=      5-min Rain = 0
KLO1 220522Z 18017KT 22/14 A2991 RMK A01 T02150142  RH  063%=      5-min Rain = 0
KLO1 220523Z 18016KT 22/14 A2991 RMK A01 T02150142  RH  063%=      5-min Rain = 0
KLO1 220524Z 18015KT 22/14 A2991 RMK A01 T02150142  RH  063%=      5-min Rain = 0
KLO1 220525Z 18014KT 21/14 A2991 RMK A01 T02140142  RH  063%=      5-min Rain = 0
KLO1 220526Z 18014KT 21/14 A2991 RMK A01 T02140142  RH  063%=      5-min Rain = 0
KLO1 220527Z 18015KT 21/14 A2991 RMK A01 T02140142  RH  063%=      5-min Rain = 0
KLO1 220528Z 18014G19KT 21/14 A2991 RMK A01 T02140142  RH  063%=      5-min Rain = 0
KLO1 220529Z 18018KT 21/14 A2991 RMK A01 T02130142  RH  064%=      5-min Rain = 0
KLO1 220530Z 18015KT 21/14 A2991 RMK A01 T02130141  RH  063%=      5-min Rain = 0
KLO1 220531Z 19017KT 21/14 A2991 RMK A01 T02130141  RH  063%=      5-min Rain = 0
KLO1 220532Z 18016KT 21/14 A2991 RMK A01 T02130141  RH  063%=      5-min Rain = 0
KLO1 220533Z 19015KT 21/14 A2991 RMK A01 T02140142  RH  063%=      5-min Rain = 0
KLO1 220534Z 19015KT 21/14 A2991 RMK A01 T02140141  RH  063%=      5-min Rain = 0
KLO1 220535Z 18017KT 21/14 A2991 RMK A01 T02130141  RH  063%=      5-min Rain = 0
KLO1 220536Z 19017KT 21/14 A2991 RMK A01 T02140141  RH  063%=      5-min Rain = 0
KLO1 220537Z 19016KT 21/14 A2991 RMK A01 T02140141  RH  063%=      5-min Rain = 0
KLO1 220538Z 18016KT 21/14 A2991 RMK A01 T02140141  RH  063%=      5-min Rain = 0
KLO1 220539Z 19016KT 21/14 A2991 RMK A01 T02140141  RH  063%=      5-min Rain = 0
KLO1 220540Z 18016KT 21/14 A2991 RMK A01 T02140141  RH  063%=      5-min Rain = 0
KLO1 220541Z 18013KT 21/14 A2992 RMK A01 T02140141  RH  063%=      5-min Rain = 0
KLO1 220542Z 18015KT 21/14 A2992 RMK A01 T02130141  RH  063%=      5-min Rain = 0
KLO1 220543Z 18014KT 21/14 A2992 RMK A01 T02130141  RH  064%=      5-min Rain = 0
KLO1 220544Z 18015KT 21/14 A2992 RMK A01 T02130141  RH  064%=      5-min Rain = 0
KLO1 220545Z 19014KT 21/14 A2992 RMK A01 T02130141  RH  064%=      5-min Rain = 0
KLO1 220546Z 18012KT 21/14 A2992 RMK A01 T02120141  RH  064%=      5-min Rain = 0
KLO1 220547Z 18015KT 21/14 A2992 RMK A01 T02120141  RH  064%=      5-min Rain = 0
KLO1 220548Z 18013KT 21/14 A2992 RMK A01 T02120141  RH  064%=      5-min Rain = 0
KLO1 220549Z 18015KT 21/14 A2992 RMK A01 T02120141  RH  064%=      5-min Rain = 0
KLO1 220550Z 19014KT 21/14 A2992 RMK A01 T02120140  RH  064%=      5-min Rain = 0
KLO1 220551Z 18015KT 21/14 A2992 RMK A01 T02120140  RH  064%=      5-min Rain = 0
KLO1 220552Z 18013KT 21/14 A2992 RMK A01 T02120140  RH  064%=      5-min Rain = 0
KLO1 220553Z 18013KT 21/14 A2992 RMK A01 T02120140  RH  064%=      5-min Rain = 0
KLO1 220554Z 19015KT 21/14 A2992 RMK A01 T02110140  RH  064%=      5-min Rain = 0
KLO1 220555Z 18013KT 21/14 A2992 RMK A01 T02110140  RH  064%=      5-min Rain = 0
KLO1 220556Z 19015G20KT 21/14 A2992 RMK A01 T02110140  RH  064%=      5-min Rain = 0
KLO1 220557Z 18015KT 21/14 A2992 RMK A01 T02110139  RH  064%=      5-min Rain = 0
KLO1 220558Z 18013KT 21/14 A2992 RMK A01 T02110139  RH  064%=      5-min Rain = 0
KLO1 220559Z 18013KT 21/14 A2992 RMK A01 T02110139  RH  064%=      5-min Rain = 0
KLO1 220600Z 18015KT 21/14 A2992 RMK A01 T02110140  RH  064%=      5-min Rain = 0
KLO1 220601Z 18016KT 21/14 A2991 RMK A01 T02110140  RH  064%=      5-min Rain = 0
KLO1 220602Z 18014KT 21/14 A2992 RMK A01 T02110139  RH  064%=      5-min Rain = 0
KLO1 220603Z 19013KT 21/14 A2992 RMK A01 T02110139  RH  064%=      5-min Rain = 0
KLO1 220604Z 18014KT 21/14 A2992 RMK A01 T02100139  RH  064%=      5-min Rain = 0
KLO1 220605Z 18014G19KT 21/14 A2992 RMK A01 T02100139  RH  064%=      5-min Rain = 0
KLO1 220606Z 18014KT 21/14 A2992 RMK A01 T02100139  RH  064%=      5-min Rain = 0
KLO1 220607Z 19011KT 21/14 A2992 RMK A01 T02100138  RH  063%=      5-min Rain = 0
KLO1 220608Z 18013KT 21/14 A2992 RMK A01 T02100138  RH  064%=      5-min Rain = 0
KLO1 220609Z 18014KT 21/14 A2992 RMK A01 T02100138  RH  064%=      5-min Rain = 0
KLO1 220610Z 19014KT 21/14 A2992 RMK A01 T02100138  RH  064%=      5-min Rain = 0
KLO1 220611Z 18015KT 21/14 A2992 RMK A01 T02100138  RH  064%=      5-min Rain = 0
KLO1 220612Z 19012KT 21/14 A2992 RMK A01 T02100138  RH  064%=      5-min Rain = 0
KLO1 220613Z 18013KT 21/14 A2992 RMK A01 T02100138  RH  064%=      5-min Rain = 0
KLO1 220614Z 19013KT 21/14 A2992 RMK A01 T02090138  RH  064%=      5-min Rain = 0
KLO1 220615Z 19017KT 21/14 A2992 RMK A01 T02080137  RH  064%=      5-min Rain = 0
KLO1 220616Z 18015KT 21/14 A2992 RMK A01 T02090138  RH  063%=      5-min Rain = 0
KLO1 220617Z 19015KT 21/14 A2992 RMK A01 T02090137  RH  063%=      5-min Rain = 0
KLO1 220618Z 18013KT 21/14 A2992 RMK A01 T02090137  RH  063%=      5-min Rain = 0
KLO1 220619Z 18012KT 21/14 A2992 RMK A01 T02090137  RH  063%=      5-min Rain = 0
KLO1 220620Z 18014KT 21/14 A2992 RMK A01 T02080137  RH  064%=      5-min Rain = 0
KLO1 220621Z 19011KT 21/14 A2992 RMK A01 T02080137  RH  064%=      5-min Rain = 0
KLO1 220622Z 18012KT 21/14 A2992 RMK A01 T02080137  RH  064%=      5-min Rain = 0
KLO1 220623Z 18012KT 21/14 A2992 RMK A01 T02080137  RH  064%=      5-min Rain = 0
KLO1 220624Z 18012KT 21/14 A2992 RMK A01 T02080137  RH  064%=      5-min Rain = 0
KLO1 220625Z 19013KT 21/14 A2992 RMK A01 T02070137  RH  064%=      5-min Rain = 0
KLO1 220626Z 19014KT 21/14 A2992 RMK A01 T02070137  RH  064%=      5-min Rain = 0
KLO1 220627Z 19013KT 21/14 A2992 RMK A01 T02070137  RH  064%=      5-min Rain = 0
KLO1 220628Z 19012KT 21/14 A2992 RMK A01 T02070136  RH  064%=      5-min Rain = 0
KLO1 220629Z 19012KT 21/14 A2992 RMK A01 T02070137  RH  064%=      5-min Rain = 0
KLO1 220630Z 19011KT 21/14 A2992 RMK A01 T02070137  RH  064%=      5-min Rain = 0
KLO1 220631Z 19012KT 21/14 A2992 RMK A01 T02070136  RH  064%=      5-min Rain = 0
KLO1 220632Z 19012KT 21/14 A2992 RMK A01 T02060136  RH  064%=      5-min Rain = 0
KLO1 220633Z 19012KT 21/14 A2992 RMK A01 T02060136  RH  064%=      5-min Rain = 0
KLO1 220634Z 19012KT 21/14 A2992 RMK A01 T02060136  RH  064%=      5-min Rain = 0
KLO1 220635Z 19011KT 21/14 A2992 RMK A01 T02060136  RH  064%=      5-min Rain = 0
KLO1 220636Z 18013KT 21/14 A2992 RMK A01 T02060136  RH  064%=      5-min Rain = 0
KLO1 220637Z 19010KT 21/14 A2992 RMK A01 T02060136  RH  064%=      5-min Rain = 0
KLO1 220638Z 19011KT 21/14 A2992 RMK A01 T02060136  RH  064%=      5-min Rain = 0
KLO1 220639Z 19012KT 21/14 A2992 RMK A01 T02050135  RH  064%=      5-min Rain = 0
KLO1 220640Z 19010KT 21/14 A2992 RMK A01 T02050135  RH  064%=      5-min Rain = 0
KLO1 220641Z 19012KT 21/14 A2992 RMK A01 T02050136  RH  064%=      5-min Rain = 0
KLO1 220642Z 19011KT 21/14 A2992 RMK A01 T02050135  RH  064%=      5-min Rain = 0
KLO1 220643Z 18010KT 21/14 A2992 RMK A01 T02050135  RH  064%=      5-min Rain = 0
KLO1 220644Z 19010KT 21/14 A2992 RMK A01 T02050135  RH  064%=      5-min Rain = 0
KLO1 220645Z 19012KT 20/14 A2992 RMK A01 T02040135  RH  064%=      5-min Rain = 0
KLO1 220646Z 19011KT 20/14 A2992 RMK A01 T02040135  RH  064%=      5-min Rain = 0
KLO1 220647Z 19009KT 20/13 A2992 RMK A01 T02040134  RH  064%=      5-min Rain = 0
KLO1 220648Z 19010KT 20/13 A2992 RMK A01 T02040134  RH  064%=      5-min Rain = 0
KLO1 220649Z 19008KT 20/13 A2992 RMK A01 T02040134  RH  064%=      5-min Rain = 0
KLO1 220650Z 19009KT 20/13 A2992 RMK A01 T02040134  RH  064%=      5-min Rain = 0
KLO1 220651Z 19010KT 20/13 A2992 RMK A01 T02040134  RH  064%=      5-min Rain = 0
KLO1 220652Z 19011KT 20/13 A2992 RMK A01 T02030134  RH  064%=      5-min Rain = 0
KLO1 220653Z 19011KT 20/13 A2992 RMK A01 T02030133  RH  064%=      5-min Rain = 0
KLO1 220654Z 19010KT 20/13 A2992 RMK A01 T02040133  RH  064%=      5-min Rain = 0
KLO1 220655Z 19011KT 20/13 A2992 RMK A01 T02040133  RH  064%=      5-min Rain = 0
KLO1 220656Z 19010KT 21/13 A2992 RMK A01 T02050133  RH  064%=      5-min Rain = 0
KLO1 220657Z 19010KT 20/13 A2992 RMK A01 T02040133  RH  064%=      5-min Rain = 0
KLO1 220658Z 19009KT 20/13 A2992 RMK A01 T02040133  RH  064%=      5-min Rain = 0
KLO1 220659Z 19011KT 20/13 A2992 RMK A01 T02040133  RH  064%=      5-min Rain = 0
KLO1 220700Z 19009KT 20/13 A2992 RMK A01 T02040133  RH  064%=      5-min Rain = 0
KLO1 220701Z 19010KT 20/13 A2992 RMK A01 T02040133  RH  064%=      5-min Rain = 0
KLO1 220702Z 19012KT 20/13 A2992 RMK A01 T02030133  RH  064%=      5-min Rain = 0
KLO1 220703Z 19010KT 20/13 A2992 RMK A01 T02040132  RH  064%=      5-min Rain = 0
KLO1 220704Z 18010KT 20/13 A2992 RMK A01 T02040133  RH  064%=      5-min Rain = 0
KLO1 220705Z 18010KT 20/13 A2992 RMK A01 T02030132  RH  064%=      5-min Rain = 0
KLO1 220706Z 18009KT 20/13 A2992 RMK A01 T02030132  RH  064%=      5-min Rain = 0
KLO1 220707Z 18010KT 20/13 A2992 RMK A01 T02030132  RH  064%=      5-min Rain = 0
KLO1 220708Z 18010KT 20/13 A2992 RMK A01 T02030132  RH  064%=      5-min Rain = 0
KLO1 220709Z 18009KT 20/13 A2992 RMK A01 T02030132  RH  064%=      5-min Rain = 0
KLO1 220710Z 18012KT 20/13 A2991 RMK A01 T02020132  RH  064%=      5-min Rain = 0
KLO1 220711Z 18010KT 20/13 A2991 RMK A01 T02020131  RH  064%=      5-min Rain = 0
KLO1 220712Z 19010KT 20/13 A2991 RMK A01 T02030131  RH  064%=      5-min Rain = 0
KLO1 220713Z 18008KT 20/13 A2991 RMK A01 T02020131  RH  064%=      5-min Rain = 0
KLO1 220714Z 19010KT 20/13 A2991 RMK A01 T02020132  RH  064%=      5-min Rain = 0
KLO1 220715Z 18009KT 20/13 A2991 RMK A01 T02020131  RH  064%=      5-min Rain = 0
KLO1 220716Z 19008KT 20/13 A2991 RMK A01 T02020132  RH  064%=      5-min Rain = 0
KLO1 220717Z 18008KT 20/13 A2991 RMK A01 T02020131  RH  064%=      5-min Rain = 0
KLO1 220718Z 19007KT 20/13 A2991 RMK A01 T02020131  RH  064%=      5-min Rain = 0
KLO1 220719Z 19007KT 20/13 A2992 RMK A01 T02010131  RH  064%=      5-min Rain = 0
KLO1 220720Z 19006KT 20/13 A2991 RMK A01 T02010131  RH  064%=      5-min Rain = 0
KLO1 220721Z 19005KT 20/13 A2992 RMK A01 T02000131  RH  064%=      5-min Rain = 0
KLO1 220722Z 19006KT 20/13 A2991 RMK A01 T02000131  RH  064%=      5-min Rain = 0
KLO1 220723Z 19005KT 20/13 A2992 RMK A01 T02000131  RH  064%=      5-min Rain = 0
KLO1 220724Z 19004KT 20/13 A2992 RMK A01 T02000131  RH  064%=      5-min Rain = 0
KLO1 220725Z 18006KT 20/13 A2992 RMK A01 T02000131  RH  064%=      5-min Rain = 0
KLO1 220726Z 17005KT 20/13 A2991 RMK A01 T02000131  RH  064%=      5-min Rain = 0
KLO1 220727Z 18006KT 20/13 A2991 RMK A01 T02000131  RH  064%=      5-min Rain = 0
KLO1 220728Z 18005KT 20/13 A2991 RMK A01 T02000131  RH  064%=      5-min Rain = 0
KLO1 220729Z 17005KT 20/13 A2991 RMK A01 T01990130  RH  064%=      5-min Rain = 0
KLO1 220730Z 17005KT 20/13 A2991 RMK A01 T01990130  RH  064%=      5-min Rain = 0
KLO1 220731Z 17006KT 20/13 A2991 RMK A01 T01990130  RH  065%=      5-min Rain = 0
KLO1 220732Z 17006KT 20/13 A2992 RMK A01 T01990130  RH  065%=      5-min Rain = 0
KLO1 220733Z 17006KT 20/13 A2992 RMK A01 T01990130  RH  065%=      5-min Rain = 0
KLO1 220734Z 17004KT 20/13 A2991 RMK A01 T01990130  RH  065%=      5-min Rain = 0
KLO1 220735Z 17005KT 20/13 A2991 RMK A01 T01990130  RH  065%=      5-min Rain = 0
KLO1 220736Z 16004KT 20/13 A2991 RMK A01 T01990130  RH  065%=      5-min Rain = 0
KLO1 220737Z 16005KT 20/13 A2991 RMK A01 T01980130  RH  065%=      5-min Rain = 0
KLO1 220738Z 16004KT 20/13 A2991 RMK A01 T01970130  RH  065%=      5-min Rain = 0
KLO1 220739Z 16005KT 20/13 A2991 RMK A01 T01970130  RH  065%=      5-min Rain = 0
KLO1 220740Z 16006KT 20/13 A2991 RMK A01 T01970130  RH  065%=      5-min Rain = 0
KLO1 220741Z 16005KT 20/13 A2991 RMK A01 T01970130  RH  065%=      5-min Rain = 0
KLO1 220742Z 16004KT 20/13 A2991 RMK A01 T01970130  RH  065%=      5-min Rain = 0
KLO1 220743Z 16004KT 20/13 A2991 RMK A01 T01970130  RH  065%=      5-min Rain = 0
KLO1 220744Z 16005KT 20/13 A2991 RMK A01 T01970130  RH  065%=      5-min Rain = 0
KLO1 220745Z 15005KT 20/13 A2991 RMK A01 T01970130  RH  065%=      5-min Rain = 0
KLO1 220746Z 15005KT 20/13 A2991 RMK A01 T01970130  RH  065%=      5-min Rain = 0
KLO1 220747Z 14004KT 20/13 A2991 RMK A01 T01960130  RH  066%=      5-min Rain = 0
KLO1 220748Z 15005KT 20/13 A2991 RMK A01 T01950130  RH  066%=      5-min Rain = 0
KLO1 220749Z 15005KT 20/13 A2991 RMK A01 T01950130  RH  066%=      5-min Rain = 0
KLO1 220750Z 15005KT 20/13 A2991 RMK A01 T01950130  RH  066%=      5-min Rain = 0
KLO1 220751Z 15005KT 19/13 A2991 RMK A01 T01940130  RH  066%=      5-min Rain = 0
KLO1 220752Z 15006KT 19/13 A2991 RMK A01 T01940130  RH  067%=      5-min Rain = 0
KLO1 220753Z 15005KT 19/13 A2991 RMK A01 T01940130  RH  067%=      5-min Rain = 0
KLO1 220754Z 15006KT 19/13 A2991 RMK A01 T01940131  RH  067%=      5-min Rain = 0
KLO1 220755Z 15006KT 19/13 A2991 RMK A01 T01930130  RH  067%=      5-min Rain = 0
KLO1 220756Z 15006KT 19/13 A2991 RMK A01 T01930131  RH  067%=      5-min Rain = 0
KLO1 220757Z 15005KT 19/13 A2991 RMK A01 T01930130  RH  067%=      5-min Rain = 0
KLO1 220758Z 15006KT 19/13 A2991 RMK A01 T01930131  RH  067%=      5-min Rain = 0
KLO1 220759Z 15005KT 19/13 A2991 RMK A01 T01930131  RH  067%=      5-min Rain = 0
KLO1 220800Z 16005KT 19/13 A2991 RMK A01 T01930131  RH  067%=      5-min Rain = 0
KLO1 220801Z 15005KT 19/13 A2991 RMK A01 T01920130  RH  067%=      5-min Rain = 0
KLO1 220802Z 15005KT 19/13 A2991 RMK A01 T01920131  RH  067%=      5-min Rain = 0
KLO1 220803Z 15005KT 19/13 A2991 RMK A01 T01920131  RH  067%=      5-min Rain = 0
KLO1 220804Z 15005KT 19/13 A2991 RMK A01 T01920131  RH  068%=      5-min Rain = 0
KLO1 220805Z 15005KT 19/13 A2991 RMK A01 T01920131  RH  068%=      5-min Rain = 0
KLO1 220806Z 15005KT 19/13 A2991 RMK A01 T01920131  RH  068%=      5-min Rain = 0
KLO1 220807Z 14005KT 19/13 A2991 RMK A01 T01920130  RH  068%=      5-min Rain = 0
KLO1 220808Z 15006KT 19/13 A2991 RMK A01 T01920131  RH  068%=      5-min Rain = 0
KLO1 220809Z 15006KT 19/13 A2991 RMK A01 T01920131  RH  068%=      5-min Rain = 0
KLO1 220810Z 15005KT 19/13 A2991 RMK A01 T01920131  RH  068%=      5-min Rain = 0
KLO1 220811Z 15005KT 19/13 A2991 RMK A01 T01920130  RH  067%=      5-min Rain = 0
KLO1 220812Z 15006KT 19/13 A2991 RMK A01 T01920130  RH  067%=      5-min Rain = 0
KLO1 220813Z 15006KT 19/13 A2991 RMK A01 T01920131  RH  067%=      5-min Rain = 0
KLO1 220814Z 16006KT 19/13 A2991 RMK A01 T01930131  RH  067%=      5-min Rain = 0
KLO1 220815Z 16006KT 19/13 A2991 RMK A01 T01930131  RH  067%=      5-min Rain = 0
KLO1 220816Z 16007KT 19/13 A2991 RMK A01 T01920130  RH  067%=      5-min Rain = 0
KLO1 220817Z 16006KT 19/13 A2991 RMK A01 T01920130  RH  068%=      5-min Rain = 0
KLO1 220818Z 16006KT 19/13 A2991 RMK A01 T01920131  RH  068%=      5-min Rain = 0
KLO1 220819Z 17006KT 19/13 A2991 RMK A01 T01920131  RH  068%=      5-min Rain = 0
KLO1 220820Z 17007KT 19/13 A2991 RMK A01 T01920131  RH  068%=      5-min Rain = 0
KLO1 220821Z 17006KT 19/13 A2991 RMK A01 T01910131  RH  068%=      5-min Rain = 0
KLO1 220822Z 17006KT 19/13 A2991 RMK A01 T01910131  RH  068%=      5-min Rain = 0
KLO1 220823Z 17006KT 19/13 A2991 RMK A01 T01900131  RH  068%=      5-min Rain = 0
KLO1 220824Z 17006KT 19/13 A2991 RMK A01 T01900131  RH  069%=      5-min Rain = 0
KLO1 220825Z 17007KT 19/13 A2991 RMK A01 T01890131  RH  069%=      5-min Rain = 0
KLO1 220826Z 17007KT 19/13 A2991 RMK A01 T01890131  RH  069%=      5-min Rain = 0
KLO1 220827Z 17007KT 19/13 A2991 RMK A01 T01880131  RH  069%=      5-min Rain = 0
KLO1 220828Z 17007KT 19/13 A2991 RMK A01 T01880131  RH  069%=      5-min Rain = 0
KLO1 220829Z 17008KT 19/13 A2991 RMK A01 T01880131  RH  069%=      5-min Rain = 0
KLO1 220830Z 17007KT 19/13 A2991 RMK A01 T01880131  RH  070%=      5-min Rain = 0
KLO1 220831Z 17007KT 19/13 A2991 RMK A01 T01880131  RH  070%=      5-min Rain = 0
KLO1 220832Z 17008KT 19/13 A2991 RMK A01 T01870131  RH  070%=      5-min Rain = 0
KLO1 220833Z 17008KT 19/13 A2991 RMK A01 T01880131  RH  070%=      5-min Rain = 0
KLO1 220834Z 17008KT 19/13 A2991 RMK A01 T01880131  RH  070%=      5-min Rain = 0
KLO1 220835Z 17008KT 19/13 A2991 RMK A01 T01870131  RH  070%=      5-min Rain = 0
KLO1 220836Z 17008KT 19/13 A2991 RMK A01 T01870131  RH  070%=      5-min Rain = 0
KLO1 220837Z 17010KT 19/13 A2991 RMK A01 T01880131  RH  070%=      5-min Rain = 0
KLO1 220838Z 17009KT 19/13 A299 RMK A01 T01890131  RH  069%=      5-min Rain = 0
KLO1 220839Z 17008KT 19/13 A299 RMK A01 T01900131  RH  069%=      5-min Rain = 0
KLO1 220840Z 17009KT 19/13 A299 RMK A01 T01900131  RH  069%=      5-min Rain = 0
KLO1 220841Z 17011KT 19/13 A299 RMK A01 T01890131  RH  069%=      5-min Rain = 0
KLO1 220842Z 17009KT 19/13 A299 RMK A01 T01900131  RH  069%=      5-min Rain = 0
KLO1 220843Z 17009KT 19/13 A299 RMK A01 T01900131  RH  068%=      5-min Rain = 0
KLO1 220844Z 17009KT 19/13 A299 RMK A01 T01910131  RH  068%=      5-min Rain = 0
KLO1 220845Z 17011KT 19/13 A299 RMK A01 T01900131  RH  068%=      5-min Rain = 0
KLO1 220846Z 17011KT 19/13 A299 RMK A01 T01920132  RH  068%=      5-min Rain = 0
KLO1 220847Z 17012G18KT 19/13 A299 RMK A01 T01930131  RH  067%=      5-min Rain = 0
KLO1 220848Z 18013KT 19/13 A299 RMK A01 T01940131  RH  067%=      5-min Rain = 0
KLO1 220849Z 17012KT 20/13 A299 RMK A01 T01950131  RH  067%=      5-min Rain = 0
KLO1 220850Z 18011KT 20/13 A299 RMK A01 T01950131  RH  066%=      5-min Rain = 0
KLO1 220851Z 17011KT 20/13 A299 RMK A01 T01950131  RH  066%=      5-min Rain = 0
KLO1 220852Z 17013KT 20/13 A299 RMK A01 T01950131  RH  067%=      5-min Rain = 0
KLO1 220853Z 17013KT 20/13 A299 RMK A01 T01950131  RH  067%=      5-min Rain = 0
KLO1 220854Z 17011KT 20/13 A299 RMK A01 T01950131  RH  066%=      5-min Rain = 0
KLO1 220855Z 18010KT 20/13 A299 RMK A01 T01950131  RH  066%=      5-min Rain = 0
KLO1 220856Z 18011KT 20/13 A299 RMK A01 T01950131  RH  066%=      5-min Rain = 0
KLO1 220857Z 18011KT 19/13 A299 RMK A01 T01940131  RH  066%=      5-min Rain = 0
KLO1 220858Z 18013KT 20/13 A299 RMK A01 T01950131  RH  066%=      5-min Rain = 0
KLO1 220859Z 17012KT 20/13 A299 RMK A01 T01950131  RH  066%=      5-min Rain = 0
KLO1 220900Z 17011KT 20/13 A299 RMK A01 T01950131  RH  066%=      5-min Rain = 0
KLO1 220901Z 17011KT 20/13 A299 RMK A01 T01950131  RH  066%=      5-min Rain = 0
KLO1 220902Z 18012KT 20/13 A299 RMK A01 T01950130  RH  066%=      5-min Rain = 0
KLO1 220903Z 17012KT 20/13 A299 RMK A01 T01950131  RH  066%=      5-min Rain = 0
KLO1 220904Z 17010KT 20/13 A299 RMK A01 T01950130  RH  066%=      5-min Rain = 0
KLO1 220905Z 17011KT 20/13 A299 RMK A01 T01950130  RH  066%=      5-min Rain = 0
KLO1 220906Z 17010KT 20/13 A299 RMK A01 T01950130  RH  066%=      5-min Rain = 0
KLO1 220907Z 17011KT 19/13 A299 RMK A01 T01940130  RH  067%=      5-min Rain = 0
KLO1 220908Z 17010KT 19/13 A299 RMK A01 T01940130  RH  067%=      5-min Rain = 0
KLO1 220909Z 16010KT 19/13 A299 RMK A01 T01930130  RH  067%=      5-min Rain = 0
KLO1 220910Z 17010KT 19/13 A299 RMK A01 T01930130  RH  067%=      5-min Rain = 0
KLO1 220911Z 16009KT 19/13 A2991 RMK A01 T01930130  RH  067%=      5-min Rain = 0
KLO1 220912Z 16009KT 19/13 A2991 RMK A01 T01920130  RH  067%=      5-min Rain = 0
KLO1 220913Z 16009KT 19/13 A2991 RMK A01 T01920130  RH  068%=      5-min Rain = 0
KLO1 220914Z 16010KT 19/13 A2991 RMK A01 T01910130  RH  068%=      5-min Rain = 0
KLO1 220915Z 16009KT 19/13 A2991 RMK A01 T01910131  RH  068%=      5-min Rain = 0
KLO1 220916Z 16010KT 19/13 A2991 RMK A01 T01900131  RH  068%=      5-min Rain = 0
KLO1 220917Z 16010KT 19/13 A2991 RMK A01 T01900130  RH  068%=      5-min Rain = 0
KLO1 220918Z 16011KT 19/13 A2991 RMK A01 T01900130  RH  068%=      5-min Rain = 0
KLO1 220919Z 16012KT 19/13 A2991 RMK A01 T01900130  RH  068%=      5-min Rain = 0
KLO1 220920Z 17011KT 19/13 A2991 RMK A01 T01910131  RH  068%=      5-min Rain = 0
KLO1 220921Z 16010KT 19/13 A2991 RMK A01 T01910131  RH  068%=      5-min Rain = 0
KLO1 220922Z 16009KT 19/13 A2991 RMK A01 T01910131  RH  068%=      5-min Rain = 0
KLO1 220923Z 16009KT 19/13 A2991 RMK A01 T01900131  RH  068%=      5-min Rain = 0
KLO1 220924Z 16009KT 19/13 A2991 RMK A01 T01890131  RH  069%=      5-min Rain = 0
KLO1 220925Z 16010KT 19/13 A2991 RMK A01 T01890131  RH  069%=      5-min Rain = 0
KLO1 220926Z 16009KT 19/13 A2991 RMK A01 T01890131  RH  069%=      5-min Rain = 0
KLO1 220927Z 16008KT 19/13 A2991 RMK A01 T01890131  RH  069%=      5-min Rain = 0
KLO1 220928Z 16008KT 19/13 A2991 RMK A01 T01880131  RH  069%=      5-min Rain = 0
KLO1 220929Z 16007KT 19/13 A2991 RMK A01 T01880131  RH  069%=      5-min Rain = 0
KLO1 220930Z 16007KT 19/13 A2991 RMK A01 T01870131  RH  070%=      5-min Rain = 0
KLO1 220931Z 16007KT 19/13 A2991 RMK A01 T01870131  RH  070%=      5-min Rain = 0
KLO1 220932Z 16008KT 19/13 A2991 RMK A01 T01860131  RH  070%=      5-min Rain = 0
KLO1 220933Z 16008KT 19/13 A2991 RMK A01 T01860131  RH  070%=      5-min Rain = 0
KLO1 220934Z 16007KT 19/13 A2991 RMK A01 T01860131  RH  070%=      5-min Rain = 0
KLO1 220935Z 17008KT 19/13 A2991 RMK A01 T01850131  RH  071%=      5-min Rain = 0
KLO1 220936Z 16007KT 19/13 A2991 RMK A01 T01850131  RH  071%=      5-min Rain = 0
KLO1 220937Z 16007KT 18/13 A2991 RMK A01 T01840131  RH  071%=      5-min Rain = 0
KLO1 220938Z 16008KT 18/13 A2991 RMK A01 T01840131  RH  071%=      5-min Rain = 0
KLO1 220939Z 16008KT 18/13 A2991 RMK A01 T01840131  RH  071%=      5-min Rain = 0
KLO1 220940Z 16008KT 18/13 A2991 RMK A01 T01840131  RH  071%=      5-min Rain = 0
KLO1 220941Z 16007KT 18/13 A2991 RMK A01 T01840131  RH  071%=      5-min Rain = 0
KLO1 220942Z 16007KT 18/13 A2991 RMK A01 T01840131  RH  071%=      5-min Rain = 0
KLO1 220943Z 16007KT 18/13 A2991 RMK A01 T01840131  RH  072%=      5-min Rain = 0
KLO1 220944Z 16008KT 18/13 A2991 RMK A01 T01830131  RH  072%=      5-min Rain = 0
KLO1 220945Z 16008KT 18/13 A2991 RMK A01 T01830131  RH  072%=      5-min Rain = 0
KLO1 220946Z 16007KT 18/13 A2991 RMK A01 T01820131  RH  072%=      5-min Rain = 0
KLO1 220947Z 16007KT 18/13 A2991 RMK A01 T01820131  RH  072%=      5-min Rain = 0
KLO1 220948Z 16007KT 18/13 A2991 RMK A01 T01820131  RH  072%=      5-min Rain = 0
KLO1 220949Z 16008KT 18/13 A2991 RMK A01 T01810131  RH  072%=      5-min Rain = 0
KLO1 220950Z 16008KT 18/13 A2991 RMK A01 T01810131  RH  073%=      5-min Rain = 0
KLO1 220951Z 16008KT 18/13 A2991 RMK A01 T01810131  RH  073%=      5-min Rain = 0
KLO1 220952Z 16008KT 18/13 A2991 RMK A01 T01810131  RH  073%=      5-min Rain = 0
KLO1 220953Z 16010KT 18/13 A2991 RMK A01 T01810131  RH  073%=      5-min Rain = 0
KLO1 220954Z 16009KT 18/13 A2991 RMK A01 T01820132  RH  072%=      5-min Rain = 0
KLO1 220955Z 16008KT 18/13 A2991 RMK A01 T01820132  RH  072%=      5-min Rain = 0
KLO1 220956Z 16009KT 18/13 A2991 RMK A01 T01820132  RH  072%=      5-min Rain = 0
KLO1 220957Z 16009KT 18/13 A2991 RMK A01 T01820132  RH  072%=      5-min Rain = 0
KLO1 220958Z 17009KT 18/13 A2991 RMK A01 T01820131  RH  072%=      5-min Rain = 0
KLO1 220959Z 17008KT 18/13 A2991 RMK A01 T01810131  RH  073%=      5-min Rain = 0
KLO1 221000Z 17008KT 18/13 A2991 RMK A01 T01820132  RH  073%=      5-min Rain = 0
KLO1 221001Z 16008KT 18/13 A2991 RMK A01 T01810132  RH  073%=      5-min Rain = 0
KLO1 221002Z 16008KT 18/13 A2991 RMK A01 T01810132  RH  073%=      5-min Rain = 0
KLO1 221003Z 16009KT 18/13 A2991 RMK A01 T01810132  RH  073%=      5-min Rain = 0
KLO1 221004Z 16008KT 18/13 A2991 RMK A01 T01800132  RH  073%=      5-min Rain = 0
KLO1 221005Z 16007KT 18/13 A2991 RMK A01 T01800132  RH  073%=      5-min Rain = 0
KLO1 221006Z 16007KT 18/13 A2991 RMK A01 T01800132  RH  073%=      5-min Rain = 0
KLO1 221007Z 16007KT 18/13 A2991 RMK A01 T01800132  RH  073%=      5-min Rain = 0
KLO1 221008Z 16007KT 18/13 A2991 RMK A01 T01800132  RH  074%=      5-min Rain = 0
KLO1 221009Z 15006KT 18/13 A2991 RMK A01 T01790132  RH  074%=      5-min Rain = 0
KLO1 221010Z 15007KT 18/13 A2991 RMK A01 T01780132  RH  074%=      5-min Rain = 0
KLO1 221011Z 15007KT 18/13 A2991 RMK A01 T01780132  RH  074%=      5-min Rain = 0
KLO1 221012Z 15007KT 18/13 A2991 RMK A01 T01780132  RH  075%=      5-min Rain = 0
KLO1 221013Z 15006KT 18/13 A2991 RMK A01 T01770132  RH  075%=      5-min Rain = 0
KLO1 221014Z 15006KT 18/13 A2991 RMK A01 T01770132  RH  075%=      5-min Rain = 0
KLO1 221015Z 15006KT 18/13 A2991 RMK A01 T01770132  RH  075%=      5-min Rain = 0
KLO1 221016Z 15006KT 18/13 A2991 RMK A01 T01760132  RH  075%=      5-min Rain = 0
KLO1 221017Z 15006KT 18/13 A2991 RMK A01 T01760132  RH  075%=      5-min Rain = 0
KLO1 221018Z 15007KT 18/13 A2991 RMK A01 T01760132  RH  075%=      5-min Rain = 0
KLO1 221019Z 14006KT 18/13 A2991 RMK A01 T01760132  RH  076%=      5-min Rain = 0
KLO1 221020Z 15006KT 18/13 A2991 RMK A01 T01760132  RH  076%=      5-min Rain = 0
KLO1 221021Z 15006KT 18/13 A2991 RMK A01 T01760132  RH  076%=      5-min Rain = 0
KLO1 221022Z 14006KT 18/13 A2991 RMK A01 T01760132  RH  076%=      5-min Rain = 0
KLO1 221023Z 15005KT 18/13 A2991 RMK A01 T01760132  RH  076%=      5-min Rain = 0
KLO1 221024Z 15007KT 18/13 A2991 RMK A01 T01760133  RH  076%=      5-min Rain = 0
KLO1 221025Z 15006KT 18/13 A2991 RMK A01 T01760133  RH  076%=      5-min Rain = 0
KLO1 221026Z 15006KT 18/13 A2991 RMK A01 T01760133  RH  076%=      5-min Rain = 0
KLO1 221027Z 15006KT 18/13 A2992 RMK A01 T01760133  RH  076%=      5-min Rain = 0
KLO1 221028Z 16006KT 18/13 A2992 RMK A01 T01760133  RH  076%=      5-min Rain = 0
KLO1 221029Z 15006KT 18/13 A2992 RMK A01 T01760133  RH  076%=      5-min Rain = 0
KLO1 221030Z 16005KT 18/13 A2992 RMK A01 T01760133  RH  076%=      5-min Rain = 0
KLO1 221031Z 15004KT 18/13 A2992 RMK A01 T01760133  RH  076%=      5-min Rain = 0
KLO1 221032Z 15004KT 18/13 A2992 RMK A01 T01760133  RH  076%=      5-min Rain = 0
KLO1 221033Z 15004KT 18/13 A2992 RMK A01 T01760134  RH  076%=      5-min Rain = 0
KLO1 221034Z 14005KT 18/13 A2992 RMK A01 T01760134  RH  076%=      5-min Rain = 0
KLO1 221035Z 14004KT 18/13 A2992 RMK A01 T01760134  RH  076%=      5-min Rain = 0
KLO1 221036Z 14003KT 18/13 A2992 RMK A01 T01750134  RH  076%=      5-min Rain = 0
KLO1 221037Z 13004KT 18/13 A2992 RMK A01 T01750134  RH  077%=      5-min Rain = 0
KLO1 221038Z 12004KT 18/13 A2992 RMK A01 T01750134  RH  077%=      5-min Rain = 0
KLO1 221039Z 12004KT 18/13 A2992 RMK A01 T01750133  RH  077%=      5-min Rain = 0
KLO1 221040Z 13004KT 18/13 A2992 RMK A01 T01750134  RH  077%=      5-min Rain = 0
KLO1 221041Z 12003KT 18/13 A2992 RMK A01 T01750134  RH  077%=      5-min Rain = 0
KLO1 221042Z 13004KT 18/13 A2992 RMK A01 T01750134  RH  077%=      5-min Rain = 0
KLO1 221043Z 14004KT 18/13 A2992 RMK A01 T01750134  RH  077%=      5-min Rain = 0
KLO1 221044Z 14004KT 18/13 A2992 RMK A01 T01750134  RH  077%=      5-min Rain = 0
KLO1 221045Z 14006KT 17/13 A2992 RMK A01 T01740134  RH  077%=      5-min Rain = 0
KLO1 221046Z 15006KT 17/13 A2992 RMK A01 T01740134  RH  077%=      5-min Rain = 0
KLO1 221047Z 15006KT 18/14 A2992 RMK A01 T01750135  RH  077%=      5-min Rain = 0
KLO1 221048Z 15006KT 18/14 A2992 RMK A01 T01760135  RH  077%=      5-min Rain = 0
KLO1 221049Z 15006KT 18/14 A2992 RMK A01 T01760135  RH  077%=      5-min Rain = 0
KLO1 221050Z 16007KT 18/14 A2992 RMK A01 T01760135  RH  077%=      5-min Rain = 0
KLO1 221051Z 16007KT 18/14 A2992 RMK A01 T01760135  RH  077%=      5-min Rain = 0
KLO1 221052Z 16008KT 18/14 A2992 RMK A01 T01760135  RH  077%=      5-min Rain = 0
KLO1 221053Z 16007KT 18/14 A2992 RMK A01 T01750135  RH  077%=      5-min Rain = 0
KLO1 221054Z 16007KT 18/14 A2992 RMK A01 T01750135  RH  077%=      5-min Rain = 0
KLO1 221055Z 16007KT 17/14 A2992 RMK A01 T01740135  RH  078%=      5-min Rain = 0
KLO1 221056Z 16007KT 17/14 A2992 RMK A01 T01740135  RH  078%=      5-min Rain = 0
KLO1 221057Z 16008KT 17/14 A2992 RMK A01 T01740135  RH  078%=      5-min Rain = 0
KLO1 221058Z 16007KT 17/14 A2992 RMK A01 T01740136  RH  078%=      5-min Rain = 0
KLO1 221059Z 16007KT 17/14 A2992 RMK A01 T01740136  RH  078%=      5-min Rain = 0
KLO1 221100Z 16008KT 17/14 A2992 RMK A01 T01730136  RH  079%=      5-min Rain = 0
KLO1 221101Z 16008KT 17/14 A2992 RMK A01 T01730136  RH  079%=      5-min Rain = 0
KLO1 221102Z 16006KT 17/14 A2992 RMK A01 T01730136  RH  079%=      5-min Rain = 0
KLO1 221103Z 15006KT 17/14 A2992 RMK A01 T01730136  RH  079%=      5-min Rain = 0
KLO1 221104Z 15006KT 17/14 A2992 RMK A01 T01740136  RH  079%=      5-min Rain = 0
KLO1 221105Z 15006KT 17/14 A2993 RMK A01 T01730136  RH  079%=      5-min Rain = 0
KLO1 221106Z 15005KT 17/14 A2993 RMK A01 T01730136  RH  079%=      5-min Rain = 0
KLO1 221107Z 15005KT 17/14 A2993 RMK A01 T01730136  RH  079%=      5-min Rain = 0
KLO1 221108Z 15006KT 17/14 A2993 RMK A01 T01730137  RH  079%=      5-min Rain = 0
KLO1 221109Z 15005KT 17/14 A2993 RMK A01 T01720136  RH  079%=      5-min Rain = 0
KLO1 221110Z 15005KT 17/14 A2993 RMK A01 T01720136  RH  079%=      5-min Rain = 0
KLO1 221111Z 15006KT 17/14 A2993 RMK A01 T01720136  RH  080%=      5-min Rain = 0
KLO1 221112Z 15006KT 17/14 A2993 RMK A01 T01720136  RH  080%=      5-min Rain = 0
KLO1 221113Z 15006KT 17/14 A2993 RMK A01 T01710136  RH  080%=      5-min Rain = 0
KLO1 221114Z 15006KT 17/14 A2993 RMK A01 T01710136  RH  080%=      5-min Rain = 0
KLO1 221115Z 15006KT 17/14 A2993 RMK A01 T01710136  RH  080%=      5-min Rain = 0
KLO1 221116Z 15006KT 17/14 A2993 RMK A01 T01710136  RH  080%=      5-min Rain = 0
KLO1 221117Z 16006KT 17/14 A2993 RMK A01 T01710136  RH  080%=      5-min Rain = 0
KLO1 221118Z 16006KT 17/14 A2993 RMK A01 T01710136  RH  080%=      5-min Rain = 0
KLO1 221119Z 16005KT 17/14 A2993 RMK A01 T01700136  RH  080%=      5-min Rain = 0
KLO1 221120Z 16005KT 17/14 A2993 RMK A01 T01700136  RH  081%=      5-min Rain = 0
KLO1 221121Z 15005KT 17/14 A2993 RMK A01 T01700136  RH  081%=      5-min Rain = 0
KLO1 221122Z 16005KT 17/14 A2993 RMK A01 T01700136  RH  081%=      5-min Rain = 0
KLO1 221123Z 16005KT 17/14 A2993 RMK A01 T01700137  RH  081%=      5-min Rain = 0
KLO1 221124Z 16006KT 17/14 A2993 RMK A01 T01690136  RH  081%=      5-min Rain = 0
KLO1 221125Z 16006KT 17/14 A2993 RMK A01 T01700137  RH  081%=      5-min Rain = 0
KLO1 221126Z 16005KT 17/14 A2993 RMK A01 T01700137  RH  081%=      5-min Rain = 0
KLO1 221127Z 16005KT 17/14 A2993 RMK A01 T01690136  RH  081%=      5-min Rain = 0
KLO1 221128Z 16005KT 17/14 A2993 RMK A01 T01690136  RH  081%=      5-min Rain = 0
KLO1 221129Z 16005KT 17/14 A2993 RMK A01 T01680136  RH  081%=      5-min Rain = 0
KLO1 221130Z 16005KT 17/14 A2994 RMK A01 T01680136  RH  082%=      5-min Rain = 0
KLO1 221131Z 16006KT 17/14 A2994 RMK A01 T01680136  RH  082%=      5-min Rain = 0
KLO1 221132Z 16006KT 17/14 A2994 RMK A01 T01670136  RH  082%=      5-min Rain = 0
KLO1 221133Z 16005KT 17/14 A2994 RMK A01 T01670136  RH  082%=      5-min Rain = 0
KLO1 221134Z 16006KT 17/14 A2994 RMK A01 T01670136  RH  082%=      5-min Rain = 0
KLO1 221135Z 16005KT 17/14 A2994 RMK A01 T01670137  RH  082%=      5-min Rain = 0
KLO1 221136Z 16005KT 17/14 A2994 RMK A01 T01670137  RH  082%=      5-min Rain = 0
KLO1 221137Z 15005KT 17/14 A2994 RMK A01 T01670137  RH  082%=      5-min Rain = 0
KLO1 221138Z 15005KT 17/14 A2994 RMK A01 T01670137  RH  082%=      5-min Rain = 0
KLO1 221139Z 15005KT 17/14 A2994 RMK A01 T01670137  RH  082%=      5-min Rain = 0
KLO1 221140Z 14005KT 17/14 A2994 RMK A01 T01660137  RH  083%=      5-min Rain = 0
KLO1 221141Z 14005KT 17/14 A2994 RMK A01 T01660137  RH  083%=      5-min Rain = 0
KLO1 221142Z 14006KT 17/14 A2994 RMK A01 T01660137  RH  083%=      5-min Rain = 0
KLO1 221143Z 14006KT 17/14 A2994 RMK A01 T01660136  RH  083%=      5-min Rain = 0
KLO1 221144Z 14006KT 17/14 A2994 RMK A01 T01660137  RH  083%=      5-min Rain = 0
KLO1 221145Z 14006KT 17/14 A2994 RMK A01 T01660137  RH  083%=      5-min Rain = 0
KLO1 221146Z 14006KT 17/14 A2994 RMK A01 T01660137  RH  083%=      5-min Rain = 0
KLO1 221147Z 14006KT 17/14 A2994 RMK A01 T01660137  RH  083%=      5-min Rain = 0
KLO1 221148Z 14006KT 17/14 A2994 RMK A01 T01660136  RH  083%=      5-min Rain = 0
KLO1 221149Z 14006KT 17/14 A2994 RMK A01 T01660136  RH  083%=      5-min Rain = 0
KLO1 221150Z 14006KT 17/14 A2994 RMK A01 T01660136  RH  083%=      5-min Rain = 0
KLO1 221151Z 14007KT 17/14 A2994 RMK A01 T01660137  RH  083%=      5-min Rain = 0
KLO1 221152Z 14007KT 17/14 A2994 RMK A01 T01660137  RH  083%=      5-min Rain = 0
KLO1 221153Z 14007KT 17/14 A2994 RMK A01 T01660136  RH  083%=      5-min Rain = 0
KLO1 221154Z 14007KT 17/14 A2994 RMK A01 T01660136  RH  083%=      5-min Rain = 0
KLO1 221155Z 15007KT 17/14 A2994 RMK A01 T01660136  RH  083%=      5-min Rain = 0
KLO1 221156Z 15007KT 17/14 A2994 RMK A01 T01660137  RH  083%=      5-min Rain = 0
KLO1 221157Z 15007KT 17/14 A2994 RMK A01 T01660136  RH  083%=      5-min Rain = 0
KLO1 221158Z 15007KT 17/14 A2994 RMK A01 T01660136  RH  083%=      5-min Rain = 0
KLO1 221159Z 16006KT 17/14 A2994 RMK A01 T01650136  RH  083%=      5-min Rain = 0
KLO1 221200Z 16007KT 17/14 A2994 RMK A01 T01650136  RH  083%=      5-min Rain = 0
KLO1 221201Z 16007KT 17/14 A2994 RMK A01 T01650136  RH  083%=      5-min Rain = 0
KLO1 221202Z 16006KT 17/14 A2994 RMK A01 T01650136  RH  083%=      5-min Rain = 0
KLO1 221203Z 16006KT 17/14 A2994 RMK A01 T01650136  RH  083%=      5-min Rain = 0
KLO1 221204Z 15006KT 16/14 A2994 RMK A01 T01640136  RH  083%=      5-min Rain = 0
KLO1 221205Z 15007KT 16/14 A2994 RMK A01 T01640136  RH  084%=      5-min Rain = 0
KLO1 221206Z 15007KT 16/14 A2994 RMK A01 T01640136  RH  084%=      5-min Rain = 0
KLO1 221207Z 16007KT 16/14 A2994 RMK A01 T01640136  RH  084%=      5-min Rain = 0
KLO1 221208Z 16006KT 16/14 A2994 RMK A01 T01630136  RH  084%=      5-min Rain = 0
KLO1 221209Z 16007KT 16/14 A2994 RMK A01 T01630136  RH  084%=      5-min Rain = 0
KLO1 221210Z 16006KT 16/14 A2994 RMK A01 T01630136  RH  084%=      5-min Rain = 0
KLO1 221211Z 16006KT 16/14 A2994 RMK A01 T01630136  RH  084%=      5-min Rain = 0
KLO1 221212Z 16007KT 16/14 A2994 RMK A01 T01620135  RH  084%=      5-min Rain = 0
KLO1 221213Z 16006KT 16/14 A2994 RMK A01 T01620135  RH  084%=      5-min Rain = 0
KLO1 221214Z 16007KT 16/14 A2994 RMK A01 T01620136  RH  084%=      5-min Rain = 0
KLO1 221215Z 16006KT 16/14 A2994 RMK A01 T01620136  RH  085%=      5-min Rain = 0
KLO1 221216Z 16006KT 16/14 A2994 RMK A01 T01620136  RH  085%=      5-min Rain = 0
KLO1 221217Z 16006KT 16/14 A2994 RMK A01 T01610135  RH  085%=      5-min Rain = 0
KLO1 221218Z 16006KT 16/14 A2994 RMK A01 T01610135  RH  085%=      5-min Rain = 0
KLO1 221219Z 16006KT 16/14 A2994 RMK A01 T01610135  RH  085%=      5-min Rain = 0
KLO1 221220Z 16006KT 16/14 A2994 RMK A01 T01610136  RH  085%=      5-min Rain = 0
KLO1 221221Z 16006KT 16/14 A2994 RMK A01 T01610136  RH  085%=      5-min Rain = 0
KLO1 221222Z 16006KT 16/14 A2994 RMK A01 T01610136  RH  085%=      5-min Rain = 0
KLO1 221223Z 16006KT 16/14 A2994 RMK A01 T01610136  RH  085%=      5-min Rain = 0
KLO1 221224Z 16006KT 16/14 A2994 RMK A01 T01610136  RH  085%=      5-min Rain = 0
KLO1 221225Z 16007KT 16/14 A2994 RMK A01 T01610136  RH  085%=      5-min Rain = 0
KLO1 221226Z 16007KT 16/14 A2994 RMK A01 T01610136  RH  085%=      5-min Rain = 0
KLO1 221227Z 16007KT 16/14 A2995 RMK A01 T01610136  RH  085%=      5-min Rain = 0
KLO1 221228Z 16007KT 16/14 A2995 RMK A01 T01610136  RH  085%=      5-min Rain = 0
KLO1 221229Z 16006KT 16/14 A2995 RMK A01 T01610136  RH  085%=      5-min Rain = 0
KLO1 221230Z 16006KT 16/14 A2994 RMK A01 T01610136  RH  085%=      5-min Rain = 0
KLO1 221231Z 16006KT 16/14 A2994 RMK A01 T01610136  RH  085%=      5-min Rain = 0
KLO1 221232Z 16006KT 16/14 A2994 RMK A01 T01610136  RH  085%=      5-min Rain = 0
KLO1 221233Z 16006KT 16/14 A2994 RMK A01 T01610136  RH  085%=      5-min Rain = 0
KLO1 221234Z 16006KT 16/14 A2994 RMK A01 T01610136  RH  085%=      5-min Rain = 0
KLO1 221235Z 16007KT 16/14 A2994 RMK A01 T01610136  RH  085%=      5-min Rain = 0
KLO1 221236Z 16007KT 16/14 A2994 RMK A01 T01620136  RH  085%=      5-min Rain = 0
KLO1 221237Z 16007KT 16/14 A2994 RMK A01 T01620136  RH  085%=      5-min Rain = 0
KLO1 221238Z 16007KT 16/14 A2995 RMK A01 T01620137  RH  085%=      5-min Rain = 0
KLO1 221239Z 16007KT 16/14 A2995 RMK A01 T01620137  RH  085%=      5-min Rain = 0
KLO1 221240Z 16007KT 16/14 A2995 RMK A01 T01630137  RH  085%=      5-min Rain = 0
KLO1 221241Z 16007KT 16/14 A2995 RMK A01 T01630137  RH  085%=      5-min Rain = 0
KLO1 221242Z 16007KT 16/14 A2995 RMK A01 T01630137  RH  084%=      5-min Rain = 0
KLO1 221243Z 16008KT 16/14 A2995 RMK A01 T01630137  RH  084%=      5-min Rain = 0
KLO1 221244Z 16007KT 16/14 A2995 RMK A01 T01640137  RH  084%=      5-min Rain = 0
KLO1 221245Z 16007KT 16/14 A2995 RMK A01 T01640138  RH  084%=      5-min Rain = 0
KLO1 221246Z 16007KT 17/14 A2995 RMK A01 T01650138  RH  084%=      5-min Rain = 0
KLO1 221247Z 16007KT 17/14 A2995 RMK A01 T01650137  RH  084%=      5-min Rain = 0
KLO1 221248Z 16006KT 17/14 A2995 RMK A01 T01660138  RH  084%=      5-min Rain = 0
KLO1 221249Z 16006KT 17/14 A2995 RMK A01 T01650137  RH  084%=      5-min Rain = 0
KLO1 221250Z 15007KT 17/14 A2995 RMK A01 T01650137  RH  084%=      5-min Rain = 0
KLO1 221251Z 15007KT 17/14 A2995 RMK A01 T01650137  RH  083%=      5-min Rain = 0
KLO1 221252Z 15006KT 17/14 A2995 RMK A01 T01660138  RH  083%=      5-min Rain = 0
KLO1 221253Z 15006KT 17/14 A2995 RMK A01 T01660138  RH  083%=      5-min Rain = 0
KLO1 221254Z 15007KT 17/14 A2995 RMK A01 T01660138  RH  083%=      5-min Rain = 0
KLO1 221255Z 15007KT 17/14 A2995 RMK A01 T01660138  RH  083%=      5-min Rain = 0
KLO1 221256Z 16007KT 17/14 A2995 RMK A01 T01660138  RH  083%=      5-min Rain = 0
KLO1 221257Z 16007KT 17/14 A2995 RMK A01 T01670138  RH  083%=      5-min Rain = 0
KLO1 221258Z 16007KT 17/14 A2995 RMK A01 T01670138  RH  083%=      5-min Rain = 0
KLO1 221259Z 16007KT 17/14 A2995 RMK A01 T01670138  RH  083%=      5-min Rain = 0
KLO1 221300Z 16007KT 17/14 A2995 RMK A01 T01680138  RH  083%=      5-min Rain = 0
KLO1 221301Z 17007KT 17/14 A2995 RMK A01 T01670138  RH  083%=      5-min Rain = 0
KLO1 221302Z 17008KT 17/14 A2995 RMK A01 T01680138  RH  083%=      5-min Rain = 0
KLO1 221303Z 16008KT 17/14 A2995 RMK A01 T01680138  RH  082%=      5-min Rain = 0
KLO1 221304Z 16008KT 17/14 A2995 RMK A01 T01680138  RH  082%=      5-min Rain = 0
KLO1 221305Z 16009KT 17/14 A2995 RMK A01 T01690138  RH  082%=      5-min Rain = 0
KLO1 221306Z 16009KT 17/14 A2995 RMK A01 T01690138  RH  082%=      5-min Rain = 0
KLO1 221307Z 16009KT 17/14 A2995 RMK A01 T01690138  RH  082%=      5-min Rain = 0
KLO1 221308Z 16009KT 17/14 A2995 RMK A01 T01700138  RH  081%=      5-min Rain = 0
KLO1 221309Z 16008KT 17/14 A2995 RMK A01 T01700138  RH  081%=      5-min Rain = 0
KLO1 221310Z 16008KT 17/14 A2995 RMK A01 T01700138  RH  081%=      5-min Rain = 0
KLO1 221311Z 16008KT 17/14 A2995 RMK A01 T01710139  RH  081%=      5-min Rain = 0
KLO1 221312Z 16009KT 17/14 A2995 RMK A01 T01710138  RH  081%=      5-min Rain = 0
KLO1 221313Z 16008KT 17/14 A2995 RMK A01 T01710138  RH  081%=      5-min Rain = 0
KLO1 221314Z 16008KT 17/14 A2995 RMK A01 T01720139  RH  081%=      5-min Rain = 0
KLO1 221315Z 16009KT 17/14 A2995 RMK A01 T01720139  RH  081%=      5-min Rain = 0
KLO1 221316Z 16010KT 17/14 A2995 RMK A01 T01730139  RH  080%=      5-min Rain = 0
KLO1 221317Z 16010KT 17/14 A2995 RMK A01 T01730138  RH  080%=      5-min Rain = 0
KLO1 221318Z 16009KT 17/14 A2995 RMK A01 T01730138  RH  080%=      5-min Rain = 0
KLO1 221319Z 16009KT 17/14 A2995 RMK A01 T01730138  RH  080%=      5-min Rain = 0
KLO1 221320Z 16009KT 17/14 A2995 RMK A01 T01740139  RH  080%=      5-min Rain = 0
KLO1 221321Z 16009KT 17/14 A2995 RMK A01 T01740139  RH  080%=      5-min Rain = 0
KLO1 221322Z 16010KT 17/14 A2995 RMK A01 T01740138  RH  079%=      5-min Rain = 0
KLO1 221323Z 16010KT 17/14 A2995 RMK A01 T01740138  RH  079%=      5-min Rain = 0
KLO1 221324Z 16008KT 17/14 A2996 RMK A01 T01740138  RH  080%=      5-min Rain = 0
KLO1 221325Z 16010KT 17/14 A2996 RMK A01 T01740139  RH  080%=      5-min Rain = 0
KLO1 221326Z 16011KT 17/14 A2996 RMK A01 T01740138  RH  079%=      5-min Rain = 0
KLO1 221327Z 16010KT 18/14 A2995 RMK A01 T01750138  RH  079%=      5-min Rain = 0
KLO1 221328Z 16009KT 18/14 A2996 RMK A01 T01750139  RH  079%=      5-min Rain = 0
KLO1 221329Z 16008KT 18/14 A2996 RMK A01 T01760139  RH  079%=      5-min Rain = 0
KLO1 221330Z 16009KT 18/14 A2996 RMK A01 T01760139  RH  079%=      5-min Rain = 0
KLO1 221331Z 16010KT 18/14 A2996 RMK A01 T01760139  RH  079%=      5-min Rain = 0
KLO1 221332Z 16012KT 18/14 A2996 RMK A01 T01760139  RH  079%=      5-min Rain = 0
KLO1 221333Z 16011KT 18/14 A2996 RMK A01 T01760138  RH  079%=      5-min Rain = 0
KLO1 221334Z 16010KT 18/14 A2996 RMK A01 T01760139  RH  079%=      5-min Rain = 0
KLO1 221335Z 17012KT 18/14 A2996 RMK A01 T01760139  RH  079%=      5-min Rain = 0
KLO1 221336Z 17009KT 18/14 A2996 RMK A01 T01770139  RH  078%=      5-min Rain = 0
KLO1 221337Z 16011KT 18/14 A2996 RMK A01 T01770139  RH  078%=      5-min Rain = 0
KLO1 221338Z 16009KT 18/14 A2996 RMK A01 T01770139  RH  078%=      5-min Rain = 0
KLO1 221339Z 16010KT 18/14 A2996 RMK A01 T01770139  RH  078%=      5-min Rain = 0
KLO1 221340Z 16010KT 18/14 A2996 RMK A01 T01780139  RH  078%=      5-min Rain = 0
KLO1 221341Z 17012KT 18/14 A2996 RMK A01 T01780139  RH  078%=      5-min Rain = 0
KLO1 221342Z 16010KT 18/14 A2996 RMK A01 T01780139  RH  078%=      5-min Rain = 0
KLO1 221343Z 16012KT 18/14 A2996 RMK A01 T01780139  RH  078%=      5-min Rain = 0
KLO1 221344Z 16011KT 18/14 A2996 RMK A01 T01780138  RH  078%=      5-min Rain = 0
KLO1 221345Z 16013KT 18/14 A2996 RMK A01 T01780139  RH  078%=      5-min Rain = 0
KLO1 221346Z 16011KT 18/14 A2996 RMK A01 T01780138  RH  078%=      5-min Rain = 0
KLO1 221347Z 15012KT 18/14 A2996 RMK A01 T01770139  RH  078%=      5-min Rain = 0
KLO1 221348Z 16011KT 18/14 A2996 RMK A01 T01770138  RH  078%=      5-min Rain = 0
KLO1 221349Z 16009KT 18/14 A2996 RMK A01 T01770138  RH  078%=      5-min Rain = 0
KLO1 221350Z 16011G16KT 18/14 A2996 RMK A01 T01770139  RH  078%=      5-min Rain = 0
KLO1 221351Z 16012KT 18/14 A2996 RMK A01 T01780138  RH  078%=      5-min Rain = 0
KLO1 221352Z 15011KT 18/14 A2996 RMK A01 T01780138  RH  078%=      5-min Rain = 0
KLO1 221353Z 17011KT 18/14 A2997 RMK A01 T01780139  RH  078%=      5-min Rain = 0
KLO1 221354Z 17009KT 18/14 A2996 RMK A01 T01780138  RH  078%=      5-min Rain = 0
KLO1 221355Z 16009KT 18/14 A2997 RMK A01 T01780139  RH  078%=      5-min Rain = 0
KLO1 221356Z 16008KT 18/14 A2997 RMK A01 T01780140  RH  078%=      5-min Rain = 0
KLO1 221357Z 16011KT 18/14 A2997 RMK A01 T01790139  RH  078%=      5-min Rain = 0
KLO1 221358Z 17011KT 18/14 A2997 RMK A01 T01790139  RH  077%=      5-min Rain = 0
KLO1 221359Z 16010KT 18/14 A2997 RMK A01 T01790139  RH  078%=      5-min Rain = 0
KLO1 221400Z 16012KT 18/14 A2997 RMK A01 T01790139  RH  078%=      5-min Rain = 0
KLO1 221401Z 16012KT 18/14 A2997 RMK A01 T01790139  RH  077%=      5-min Rain = 0
KLO1 221402Z 16011KT 18/14 A2997 RMK A01 T01790139  RH  077%=      5-min Rain = 0
KLO1 221403Z 16011KT 18/14 A2997 RMK A01 T01800140  RH  077%=      5-min Rain = 0
KLO1 221404Z 16012KT 18/14 A2997 RMK A01 T01800139  RH  077%=      5-min Rain = 0
KLO1 221405Z 17010KT 18/14 A2997 RMK A01 T01800139  RH  077%=      5-min Rain = 0
KLO1 221406Z 16009KT 18/14 A2997 RMK A01 T01800139  RH  077%=      5-min Rain = 0
KLO1 221407Z 17009KT 18/14 A2997 RMK A01 T01800140  RH  078%=      5-min Rain = 0
KLO1 221408Z 16011KT 18/14 A2997 RMK A01 T01800140  RH  078%=      5-min Rain = 0
KLO1 221409Z 16013KT 18/14 A2997 RMK A01 T01810140  RH  077%=      5-min Rain = 0
KLO1 221410Z 16013KT 18/14 A2997 RMK A01 T01810139  RH  077%=      5-min Rain = 0
KLO1 221411Z 16013KT 18/14 A2997 RMK A01 T01800139  RH  077%=      5-min Rain = 0
KLO1 221412Z 16013KT 18/14 A2997 RMK A01 T01800140  RH  077%=      5-min Rain = 0
KLO1 221413Z 16015KT 18/14 A2997 RMK A01 T01800139  RH  077%=      5-min Rain = 0
KLO1 221414Z 17013KT 18/14 A2997 RMK A01 T01800139  RH  077%=      5-min Rain = 0
KLO1 221415Z 16014KT 18/14 A2997 RMK A01 T01800139  RH  077%=      5-min Rain = 0
KLO1 221416Z 16013KT 18/14 A2997 RMK A01 T01800139  RH  077%=      5-min Rain = 0
KLO1 221417Z 16011KT 18/14 A2997 RMK A01 T01810139  RH  077%=      5-min Rain = 0
KLO1 221418Z 16013KT 18/14 A2997 RMK A01 T01810141  RH  077%=      5-min Rain = 0
KLO1 221419Z 16013KT 18/14 A2997 RMK A01 T01820140  RH  076%=      5-min Rain = 0
KLO1 221420Z 16013KT 18/14 A2997 RMK A01 T01820140  RH  077%=      5-min Rain = 0
KLO1 221421Z 17015KT 18/14 A2997 RMK A01 T01820140  RH  076%=      5-min Rain = 0
KLO1 221422Z 16013KT 18/14 A2997 RMK A01 T01820140  RH  076%=      5-min Rain = 0
KLO1 221423Z 17012KT 18/14 A2997 RMK A01 T01810140  RH  077%=      5-min Rain = 0
KLO1 221424Z 17010KT 18/14 A2997 RMK A01 T01820140  RH  077%=      5-min Rain = 0
KLO1 221425Z 17014KT 18/14 A2997 RMK A01 T01830140  RH  076%=      5-min Rain = 0
KLO1 221426Z 17013KT 18/14 A2997 RMK A01 T01830140  RH  076%=      5-min Rain = 0
KLO1 221427Z 16010KT 18/14 A2997 RMK A01 T01830140  RH  076%=      5-min Rain = 0
KLO1 221428Z 16012KT 18/14 A2997 RMK A01 T01840141  RH  076%=      5-min Rain = 0
KLO1 221429Z 16013KT 18/14 A2997 RMK A01 T01840141  RH  076%=      5-min Rain = 0
KLO1 221430Z 16012KT 18/14 A2997 RMK A01 T01840140  RH  076%=      5-min Rain = 0
KLO1 221431Z 16012KT 18/14 A2997 RMK A01 T01830141  RH  076%=      5-min Rain = 0
KLO1 221432Z 16010KT 18/14 A2997 RMK A01 T01830142  RH  077%=      5-min Rain = 0
KLO1 221433Z 17012KT 18/14 A2997 RMK A01 T01840141  RH  076%=      5-min Rain = 0
KLO1 221434Z 16011KT 18/14 A2997 RMK A01 T01840141  RH  076%=      5-min Rain = 0
KLO1 221435Z 17011KT 18/14 A2997 RMK A01 T01840141  RH  076%=      5-min Rain = 0
KLO1 221436Z 18012KT 18/14 A2997 RMK A01 T01840141  RH  076%=      5-min Rain = 0
KLO1 221437Z 18014KT 18/14 A2997 RMK A01 T01840141  RH  076%=      5-min Rain = 0
KLO1 221438Z 18014KT 18/14 A2997 RMK A01 T01840141  RH  076%=      5-min Rain = 0
KLO1 221439Z 18016KT 18/14 A2997 RMK A01 T01840140  RH  076%=      5-min Rain = 0
KLO1 221440Z 18014KT 18/14 A2997 RMK A01 T01840141  RH  076%=      5-min Rain = 0
KLO1 221441Z 18014KT 18/14 A2997 RMK A01 T01840141  RH  076%=      5-min Rain = 0
KLO1 221442Z 19015KT 19/14 A2997 RMK A01 T01850141  RH  076%=      5-min Rain = 0
KLO1 221443Z 19013KT 19/14 A2997 RMK A01 T01850141  RH  076%=      5-min Rain = 0
KLO1 221444Z 17013KT 18/14 A2997 RMK A01 T01840141  RH  076%=      5-min Rain = 0
KLO1 221445Z 17014KT 18/14 A2997 RMK A01 T01840141  RH  076%=      5-min Rain = 0
KLO1 221446Z 17012KT 18/14 A2997 RMK A01 T01840141  RH  076%=      5-min Rain = 0
KLO1 221447Z 18014KT 18/14 A2997 RMK A01 T01840141  RH  076%=      5-min Rain = 0
KLO1 221448Z 17014KT 18/14 A2997 RMK A01 T01840141  RH  076%=      5-min Rain = 0
KLO1 221449Z 17015KT 19/14 A2998 RMK A01 T01850141  RH  076%=      5-min Rain = 0
KLO1 221450Z 18012KT 19/14 A2998 RMK A01 T01850141  RH  076%=      5-min Rain = 0
KLO1 221451Z 19014KT 19/14 A2998 RMK A01 T01850142  RH  076%=      5-min Rain = 0
KLO1 221452Z 19014KT 19/14 A2998 RMK A01 T01850141  RH  076%=      5-min Rain = 0
KLO1 221453Z 19015KT 19/14 A2998 RMK A01 T01850142  RH  076%=      5-min Rain = 0
KLO1 221454Z 19014KT 19/14 A2998 RMK A01 T01850141  RH  076%=      5-min Rain = 0
KLO1 221455Z 18014KT 19/14 A2998 RMK A01 T01850142  RH  076%=      5-min Rain = 0
KLO1 221456Z 18014KT 19/14 A2998 RMK A01 T01850141  RH  076%=      5-min Rain = 0
KLO1 221457Z 17014KT 19/14 A2997 RMK A01 T01850141  RH  076%=      5-min Rain = 0
KLO1 221458Z 17012KT 19/14 A2997 RMK A01 T01850142  RH  076%=      5-min Rain = 0
KLO1 221459Z 17012KT 19/14 A2997 RMK A01 T01850142  RH  076%=      5-min Rain = 0
KLO1 221500Z 17010KT 19/14 A2997 RMK A01 T01850142  RH  076%=      5-min Rain = 0
KLO1 221501Z 17012KT 19/14 A2997 RMK A01 T01850142  RH  076%=      5-min Rain = 0
KLO1 221502Z 17013KT 19/14 A2997 RMK A01 T01860142  RH  075%=      5-min Rain = 0
KLO1 221503Z 17012KT 19/14 A2997 RMK A01 T01870142  RH  075%=      5-min Rain = 0
KLO1 221504Z 18010KT 19/14 A2997 RMK A01 T01860142  RH  075%=      5-min Rain = 0
KLO1 221505Z 17011KT 19/14 A2997 RMK A01 T01870143  RH  076%=      5-min Rain = 0
KLO1 221506Z 17014KT 19/14 A2997 RMK A01 T01870142  RH  075%=      5-min Rain = 0
KLO1 221507Z 17013KT 19/14 A2997 RMK A01 T01870142  RH  075%=      5-min Rain = 0
KLO1 221508Z 17014KT 19/14 A2997 RMK A01 T01870142  RH  075%=      5-min Rain = 0
KLO1 221509Z 16015KT 19/14 A2997 RMK A01 T01870142  RH  075%=      5-min Rain = 0
KLO1 221510Z 17012KT 19/14 A2996 RMK A01 T01870142  RH  075%=      5-min Rain = 0
KLO1 221511Z 16011KT 19/14 A2997 RMK A01 T01870142  RH  075%=      5-min Rain = 0
KLO1 221512Z 17012KT 19/14 A2997 RMK A01 T01870142  RH  075%=      5-min Rain = 0
KLO1 221513Z 18014KT 19/14 A2997 RMK A01 T01870142  RH  075%=      5-min Rain = 0
KLO1 221514Z 18013KT 19/14 A2997 RMK A01 T01870142  RH  075%=      5-min Rain = 0
KLO1 221515Z 18012KT 19/14 A2997 RMK A01 T01870142  RH  075%=      5-min Rain = 0
KLO1 221516Z 20010KT 19/14 A2998 RMK A01 T01880143  RH  075%=      5-min Rain = 0
KLO1 221517Z 19011KT 19/14 A2998 RMK A01 T01890143  RH  075%=      5-min Rain = 0
KLO1 221518Z 19010KT 19/14 A2998 RMK A01 T01890143  RH  074%=      5-min Rain = 0
KLO1 221519Z 20007KT 19/14 A2998 RMK A01 T01890143  RH  075%=      5-min Rain = 0
KLO1 221520Z 19009KT 19/14 A2998 RMK A01 T01890144  RH  075%=      5-min Rain = 0
KLO1 221521Z 18011KT 19/14 A2998 RMK A01 T01900143  RH  074%=      5-min Rain = 0
KLO1 221522Z 17011KT 19/14 A2998 RMK A01 T01900143  RH  074%=      5-min Rain = 0
KLO1 221523Z 18010KT 19/14 A2998 RMK A01 T01900143  RH  074%=      5-min Rain = 0
KLO1 221524Z 18012KT 19/15 A2998 RMK A01 T01920145  RH  074%=      5-min Rain = 0
KLO1 221525Z 18011KT 19/14 A2998 RMK A01 T01930144  RH  073%=      5-min Rain = 0
KLO1 221526Z 18012KT 19/14 A2998 RMK A01 T01940144  RH  073%=      5-min Rain = 0
KLO1 221527Z 18013KT 19/14 A2998 RMK A01 T01940144  RH  073%=      5-min Rain = 0
KLO1 221528Z 18013KT 19/14 A2998 RMK A01 T01940144  RH  073%=      5-min Rain = 0
KLO1 221529Z 18013KT 19/14 A2998 RMK A01 T01940143  RH  072%=      5-min Rain = 0
KLO1 221530Z 18013KT 19/14 A2998 RMK A01 T01940144  RH  073%=      5-min Rain = 0
KLO1 221531Z 17014KT 20/14 A2998 RMK A01 T01960144  RH  072%=      5-min Rain = 0
KLO1 221532Z 17013KT 20/15 A2998 RMK A01 T01970145  RH  072%=      5-min Rain = 0
KLO1 221533Z 17015KT 20/14 A2998 RMK A01 T01980144  RH  071%=      5-min Rain = 0
KLO1 221534Z 16014KT 20/14 A2998 RMK A01 T01980144  RH  071%=      5-min Rain = 0
KLO1 221535Z 17013KT 20/14 A2998 RMK A01 T01970144  RH  071%=      5-min Rain = 0
KLO1 221536Z 17013KT 20/14 A2998 RMK A01 T01970144  RH  071%=      5-min Rain = 0
KLO1 221537Z 16013KT 20/14 A2998 RMK A01 T01970144  RH  072%=      5-min Rain = 0
KLO1 221538Z 17011KT 20/14 A2998 RMK A01 T01970144  RH  072%=      5-min Rain = 0
KLO1 221539Z 17010KT 20/15 A2998 RMK A01 T01970145  RH  072%=      5-min Rain = 0
KLO1 221540Z 17011KT 20/15 A2998 RMK A01 T01980146  RH  072%=      5-min Rain = 0
KLO1 221541Z 17013KT 20/14 A2998 RMK A01 T01990144  RH  071%=      5-min Rain = 0
KLO1 221542Z 17011KT 20/14 A2998 RMK A01 T01970144  RH  071%=      5-min Rain = 0
KLO1 221543Z 17011KT 20/14 A2998 RMK A01 T01970144  RH  072%=      5-min Rain = 0
KLO1 221544Z 17010KT 20/15 A2998 RMK A01 T01970145  RH  072%=      5-min Rain = 0
KLO1 221545Z 16011KT 20/15 A2998 RMK A01 T01970145  RH  072%=      5-min Rain = 0
KLO1 221546Z 16010KT 20/15 A2998 RMK A01 T01970145  RH  072%=      5-min Rain = 0
KLO1 221547Z 17010KT 20/15 A2998 RMK A01 T01970146  RH  072%=      5-min Rain = 0
KLO1 221548Z 17011KT 20/15 A2998 RMK A01 T01980145  RH  071%=      5-min Rain = 0
KLO1 221549Z 17011KT 20/15 A2998 RMK A01 T01990146  RH  071%=      5-min Rain = 0
KLO1 221550Z 18011KT 20/15 A2998 RMK A01 T01990145  RH  071%=      5-min Rain = 0
KLO1 221551Z 19011KT 20/14 A2998 RMK A01 T01980143  RH  071%=      5-min Rain = 0
KLO1 221552Z 17010KT 20/14 A2998 RMK A01 T01960144  RH  072%=      5-min Rain = 0
KLO1 221553Z 17011KT 20/15 A2998 RMK A01 T01960145  RH  072%=      5-min Rain = 0
KLO1 221554Z 17010KT 20/15 A2998 RMK A01 T01970145  RH  072%=      5-min Rain = 0
KLO1 221555Z 16010KT 20/15 A2998 RMK A01 T01980146  RH  072%=      5-min Rain = 0
KLO1 221556Z 16011KT 20/15 A2998 RMK A01 T01990146  RH  071%=      5-min Rain = 0
KLO1 221557Z 16011KT 20/15 A2998 RMK A01 T01990145  RH  071%=      5-min Rain = 0
KLO1 221558Z 17012KT 20/14 A2998 RMK A01 T01980144  RH  071%=      5-min Rain = 0
KLO1 221559Z 15012KT 20/15 A2998 RMK A01 T01980145  RH  072%=      5-min Rain = 0
KLO1 221600Z 15011KT 20/14 A2998 RMK A01 T01980144  RH  071%=      5-min Rain = 0
KLO1 221601Z 16010KT 20/14 A2998 RMK A01 T01970144  RH  072%=      5-min Rain = 0
KLO1 221602Z 17010KT 20/15 A2998 RMK A01 T01970145  RH  072%=      5-min Rain = 0
KLO1 221603Z 15009KT 20/15 A2998 RMK A01 T01980146  RH  072%=      5-min Rain = 0
KLO1 221604Z 15009KT 20/15 A2998 RMK A01 T01990146  RH  072%=      5-min Rain = 0
KLO1 221605Z 16009KT 20/15 A2998 RMK A01 T01990146  RH  071%=      5-min Rain = 0
KLO1 221606Z 15008KT 20/15 A2999 RMK A01 T02000145  RH  071%=      5-min Rain = 0
KLO1 221607Z 14008KT 20/15 A2999 RMK A01 T02000146  RH  071%=      5-min Rain = 0
KLO1 221608Z 15008KT 20/15 A2999 RMK A01 T02000145  RH  071%=      5-min Rain = 0
KLO1 221609Z 15007KT 20/15 A2999 RMK A01 T02000145  RH  071%=      5-min Rain = 0
KLO1 221610Z 13005KT 20/15 A30 RMK A01 T02000146  RH  071%=      5-min Rain = 0
KLO1 221611Z 12005KT 20/15 A30 RMK A01 T02010146  RH  071%=      5-min Rain = 0
KLO1 221612Z 14005KT 20/15 A30 RMK A01 T02020148  RH  071%=      5-min Rain = 0
KLO1 221613Z 15003KT 20/15 A30 RMK A01 T02030147  RH  070%=      5-min Rain = 0
KLO1 221614Z 12003KT 20/15 A3001 RMK A01 T02040148  RH  070%=      5-min Rain = 0
KLO1 221615Z 12003KT 20/15 A3001 RMK A01 T02040146  RH  069%=      5-min Rain = 0
KLO1 221616Z 13000KT 20/15 A3001 RMK A01 T02040146  RH  069%=      5-min Rain = 0
KLO1 221617Z 09001KT 20/15 A3001 RMK A01 T02040146  RH  070%=      5-min Rain = 0
KLO1 221618Z 08001KT 20/15 A3001 RMK A01 T02030146  RH  070%=      5-min Rain = 0
KLO1 221619Z 11002KT 20/15 A3001 RMK A01 T02040147  RH  070%=      5-min Rain = 0
KLO1 221620Z 12002KT 20/15 A3001 RMK A01 T02030145  RH  069%=      5-min Rain = 0
KLO1 221621Z 12003KT 20/15 A3001 RMK A01 T02030145  RH  070%=      5-min Rain = 0
KLO1 221622Z 12002KT 20/15 A3001 RMK A01 T02030146  RH  070%=      5-min Rain = 0
KLO1 221623Z 14001KT 20/15 A3001 RMK A01 T02030145  RH  070%=      5-min Rain = 0
KLO1 221624Z 12005KT 20/15 A3001 RMK A01 T02030146  RH  070%=      5-min Rain = 0
KLO1 221625Z 12007KT 20/15 A3001 RMK A01 T02040146  RH  069%=      5-min Rain = 0
KLO1 221626Z 13008KT 21/15 A3001 RMK A01 T02050147  RH  069%=      5-min Rain = 0
KLO1 221627Z 14010KT 21/15 A3001 RMK A01 T02070148  RH  069%=      5-min Rain = 0
KLO1 221628Z 13009KT 21/15 A3001 RMK A01 T02090147  RH  068%=      5-min Rain = 0
KLO1 221629Z 14008KT 21/15 A30 RMK A01 T02100147  RH  068%=      5-min Rain = 0
KLO1 221630Z 15005KT 21/15 A30 RMK A01 T02090146  RH  067%=      5-min Rain = 0
KLO1 221631Z 14006KT 21/15 A30 RMK A01 T02080148  RH  068%=      5-min Rain = 0
KLO1 221632Z 12009KT 21/15 A30 RMK A01 T02090148  RH  068%=      5-min Rain = 0
KLO1 221633Z 13008KT 21/15 A30 RMK A01 T02120149  RH  067%=      5-min Rain = 0
KLO1 221634Z 12007KT 21/15 A30 RMK A01 T02130148  RH  067%=      5-min Rain = 0
KLO1 221635Z 12009KT 21/15 A30 RMK A01 T02130148  RH  066%=      5-min Rain = 0
KLO1 221636Z 13009KT 21/15 A3001 RMK A01 T02120148  RH  067%=      5-min Rain = 0
KLO1 221637Z 12008KT 21/15 A3001 RMK A01 T02130148  RH  066%=      5-min Rain = 0
KLO1 221638Z 13007KT 21/15 A3001 RMK A01 T02130147  RH  066%=      5-min Rain = 0
KLO1 221639Z 14010KT 21/15 A3001 RMK A01 T02110147  RH  067%=      5-min Rain = 0
KLO1 221640Z 15007KT 21/15 A3001 RMK A01 T02100146  RH  067%=      5-min Rain = 0
KLO1 221641Z 14007KT 21/15 A3001 RMK A01 T02090147  RH  068%=      5-min Rain = 0
KLO1 221642Z 14004KT 21/15 A3001 RMK A01 T02090147  RH  068%=      5-min Rain = 0
KLO1 221643Z 16006KT 21/15 A3002 RMK A01 T02090146  RH  067%=      5-min Rain = 0
KLO1 221644Z 15007KT 21/15 A3002 RMK A01 T02090146  RH  067%=      5-min Rain = 0
KLO1 221645Z 14005KT 21/15 A3002 RMK A01 T02080146  RH  068%=      5-min Rain = 0
KLO1 221646Z 15004KT 21/15 A3002 RMK A01 T02070146  RH  068%=      5-min Rain = 0
KLO1 221647Z 14004KT 21/15 A3002 RMK A01 T02060146  RH  068%=      5-min Rain = 0
KLO1 221648Z 15007KT 21/15 A3002 RMK A01 T02060147  RH  069%=      5-min Rain = 0
KLO1 221649Z 14009KT 21/15 A3002 RMK A01 T02080147  RH  068%=      5-min Rain = 0
KLO1 221650Z 13008KT 21/15 A3001 RMK A01 T02090147  RH  067%=      5-min Rain = 0
KLO1 221651Z 13008KT 21/15 A3001 RMK A01 T02070146  RH  068%=      5-min Rain = 0
KLO1 221652Z 13009KT 21/15 A3001 RMK A01 T02060146  RH  068%=      5-min Rain = 0
KLO1 221653Z 12008KT 21/15 A3001 RMK A01 T02060146  RH  068%=      5-min Rain = 0
KLO1 221654Z 14007KT 21/15 A3001 RMK A01 T02070146  RH  068%=      5-min Rain = 0
KLO1 221655Z 13011KT 21/15 A3001 RMK A01 T02080147  RH  068%=      5-min Rain = 0
KLO1 221656Z 13008KT 21/15 A3001 RMK A01 T02100147  RH  067%=      5-min Rain = 0
KLO1 221657Z 12007KT 21/15 A3001 RMK A01 T02110148  RH  067%=      5-min Rain = 0
KLO1 221658Z 10004KT 21/15 A3001 RMK A01 T02120145  RH  066%=      5-min Rain = 0
KLO1 221659Z 11005KT 21/15 A3001 RMK A01 T02090145  RH  067%=      5-min Rain = 0
KLO1 221700Z 11004KT 21/15 A3001 RMK A01 T02080145  RH  068%=      5-min Rain = 0
KLO1 221701Z 13005KT 21/15 A3001 RMK A01 T02070146  RH  068%=      5-min Rain = 0
KLO1 221702Z 14006KT 21/15 A3001 RMK A01 T02090147  RH  068%=      5-min Rain = 0
KLO1 221703Z 15005KT 21/15 A3001 RMK A01 T02100146  RH  067%=      5-min Rain = 0
KLO1 221704Z 16006KT 21/15 A3001 RMK A01 T02100147  RH  067%=      5-min Rain = 0
KLO1 221705Z 16007KT 21/15 A3001 RMK A01 T02110147  RH  066%=      5-min Rain = 0
KLO1 221706Z 11006KT 21/15 A3001 RMK A01 T02110146  RH  067%=      5-min Rain = 0
KLO1 221707Z 12007KT 21/15 A3001 RMK A01 T02110149  RH  068%=      5-min Rain = 0
KLO1 221708Z 11005KT 21/15 A3001 RMK A01 T02130147  RH  066%=      5-min Rain = 0
KLO1 221709Z 12004KT 21/15 A30 RMK A01 T02110146  RH  066%=      5-min Rain = 0
KLO1 221710Z 11007KT 21/15 A30 RMK A01 T02110149  RH  068%=      5-min Rain = 0
KLO1 221711Z 12010KT 21/15 A30 RMK A01 T02140149  RH  067%=      5-min Rain = 0
KLO1 221712Z 12013KT 22/15 A30 RMK A01 T02160148  RH  065%=      5-min Rain = 0
KLO1 221713Z 12009KT 22/15 A30 RMK A01 T02160146  RH  064%=      5-min Rain = 0
KLO1 221714Z 13009KT 22/15 A30 RMK A01 T02150147  RH  065%=      5-min Rain = 0
KLO1 221715Z 12009KT 22/15 A30 RMK A01 T02180148  RH  064%=      5-min Rain = 0
KLO1 221716Z 14009G14KT 22/15 A30 RMK A01 T02180147  RH  064%=      5-min Rain = 0
KLO1 221717Z 14007KT 22/15 A30 RMK A01 T02190147  RH  063%=      5-min Rain = 0
KLO1 221718Z 15005KT 22/15 A30 RMK A01 T02170145  RH  063%=      5-min Rain = 0
KLO1 221719Z 15005KT 22/15 A30 RMK A01 T02150145  RH  064%=      5-min Rain = 0
KLO1 221720Z 14008KT 22/15 A30 RMK A01 T02150146  RH  065%=      5-min Rain = 0
KLO1 221721Z 15007KT 22/15 A30 RMK A01 T02160145  RH  064%=      5-min Rain = 0
KLO1 221722Z 14008KT 22/14 A30 RMK A01 T02150144  RH  064%=      5-min Rain = 0
KLO1 221723Z 12007KT 21/15 A30 RMK A01 T02140146  RH  065%=      5-min Rain = 0
KLO1 221724Z 10007KT 22/15 A30 RMK A01 T02170147  RH  064%=      5-min Rain = 0
KLO1 221725Z 09007KT 22/15 A30 RMK A01 T02170147  RH  064%=      5-min Rain = 0
KLO1 221726Z 12008KT 22/15 A30 RMK A01 T02160148  RH  065%=      5-min Rain = 0
KLO1 221727Z 12008KT 22/15 A30 RMK A01 T02190148  RH  064%=      5-min Rain = 0
KLO1 221728Z 11006KT 22/15 A30 RMK A01 T02190146  RH  063%=      5-min Rain = 0
KLO1 221729Z 12008KT 22/15 A30 RMK A01 T02180148  RH  064%=      5-min Rain = 0
KLO1 221730Z 11009KT 22/15 A30 RMK A01 T02190146  RH  063%=      5-min Rain = 0
KLO1 221731Z 11008KT 22/15 A30 RMK A01 T02190146  RH  063%=      5-min Rain = 0
KLO1 221732Z 12007KT 22/15 A30 RMK A01 T02170146  RH  064%=      5-min Rain = 0
KLO1 221733Z 12005KT 22/15 A30 RMK A01 T02160146  RH  065%=      5-min Rain = 0
KLO1 221734Z 14008KT 22/15 A30 RMK A01 T02160147  RH  065%=      5-min Rain = 0
KLO1 221735Z 15008KT 22/15 A30 RMK A01 T02170148  RH  065%=      5-min Rain = 0
KLO1 221736Z 14006KT 22/15 A30 RMK A01 T02170149  RH  065%=      5-min Rain = 0
KLO1 221737Z 14007KT 22/15 A30 RMK A01 T02190149  RH  065%=      5-min Rain = 0
KLO1 221738Z 11007KT 22/15 A30 RMK A01 T02210150  RH  064%=      5-min Rain = 0
KLO1 221739Z 12006KT 22/15 A30 RMK A01 T02230150  RH  064%=      5-min Rain = 0
KLO1 221740Z 11006KT 22/15 A30 RMK A01 T02240151  RH  063%=      5-min Rain = 0
KLO1 221741Z 12006KT 22/15 A30 RMK A01 T02240148  RH  062%=      5-min Rain = 0
KLO1 221742Z 14012KT 22/15 A30 RMK A01 T02230148  RH  063%=      5-min Rain = 0
KLO1 221743Z 16009KT 22/15 A30 RMK A01 T02220146  RH  062%=      5-min Rain = 0
KLO1 221744Z 17007KT 22/15 A30 RMK A01 T02200146  RH  063%=      5-min Rain = 0
KLO1 221745Z 11007KT 22/15 A30 RMK A01 T02180147  RH  064%=      5-min Rain = 0
KLO1 221746Z 11006KT 22/15 A30 RMK A01 T02190146  RH  063%=      5-min Rain = 0
KLO1 221747Z 12009KT 22/15 A30 RMK A01 T02180147  RH  064%=      5-min Rain = 0
KLO1 221748Z 12011KT 22/15 A30 RMK A01 T02200147  RH  063%=      5-min Rain = 0
KLO1 221749Z 13008KT 22/15 A30 RMK A01 T02200147  RH  063%=      5-min Rain = 0
KLO1 221750Z 12008KT 22/15 A30 RMK A01 T02210148  RH  063%=      5-min Rain = 0
KLO1 221751Z 12008KT 22/15 A30 RMK A01 T02220147  RH  062%=      5-min Rain = 0
KLO1 221752Z 11007KT 22/15 A30 RMK A01 T02210146  RH  063%=      5-min Rain = 0
KLO1 221753Z 13007KT 22/15 A30 RMK A01 T02200147  RH  063%=      5-min Rain = 0
KLO1 221754Z 12010KT 22/15 A30 RMK A01 T02220147  RH  063%=      5-min Rain = 0
KLO1 221755Z 11007KT 22/15 A30 RMK A01 T02220147  RH  062%=      5-min Rain = 0
KLO1 221756Z 12009KT 22/15 A30 RMK A01 T02220147  RH  062%=      5-min Rain = 0
KLO1 221757Z 13009KT 22/15 A30 RMK A01 T02230147  RH  062%=      5-min Rain = 0
KLO1 221758Z 13008KT 22/15 A30 RMK A01 T02240146  RH  062%=      5-min Rain = 0
KLO1 221759Z 13007KT 22/15 A30 RMK A01 T02240147  RH  062%=      5-min Rain = 0
KLO1 221800Z 13008KT 23/15 A30 RMK A01 T02260149  RH  062%=      5-min Rain = 0
KLO1 221801Z 14010KT 23/15 A30 RMK A01 T02270149  RH  061%=      5-min Rain = 0
KLO1 221802Z 15008KT 23/15 A3001 RMK A01 T02250147  RH  061%=      5-min Rain = 0
KLO1 221803Z 15005KT 22/15 A3001 RMK A01 T02200146  RH  063%=      5-min Rain = 0
KLO1 221804Z 12007KT 22/15 A3001 RMK A01 T02190148  RH  064%=      5-min Rain = 0
KLO1 221805Z 10005KT 22/15 A3001 RMK A01 T02190146  RH  063%=      5-min Rain = 0
KLO1 221806Z 13003KT 22/15 A3001 RMK A01 T02180148  RH  064%=      5-min Rain = 0
KLO1 221807Z 16005KT 22/15 A3001 RMK A01 T02180148  RH  064%=      5-min Rain = 0
KLO1 221808Z 18006KT 22/15 A3001 RMK A01 T02190147  RH  064%=      5-min Rain = 0
KLO1 221809Z 17008KT 22/15 A3001 RMK A01 T02200147  RH  063%=      5-min Rain = 0
KLO1 221810Z 13008KT 22/15 A3001 RMK A01 T02200147  RH  063%=      5-min Rain = 0
KLO1 221811Z 14009KT 22/15 A3001 RMK A01 T02210147  RH  063%=      5-min Rain = 0
KLO1 221812Z 15012KT 22/15 A3001 RMK A01 T02220147  RH  063%=      5-min Rain = 0
KLO1 221813Z 17009KT 22/15 A3001 RMK A01 T02220147  RH  062%=      5-min Rain = 0
KLO1 221814Z 17005KT 22/15 A3001 RMK A01 T02220146  RH  062%=      5-min Rain = 0
KLO1 221815Z 16009KT 22/15 A3001 RMK A01 T02220148  RH  063%=      5-min Rain = 0
KLO1 221816Z 15010KT 22/15 A3001 RMK A01 T02230149  RH  063%=      5-min Rain = 0
KLO1 221817Z 17010KT 23/15 A3001 RMK A01 T02250147  RH  061%=      5-min Rain = 0
KLO1 221818Z 17009KT 23/15 A3001 RMK A01 T02250145  RH  060%=      5-min Rain = 0
KLO1 221819Z 17008KT 22/14 A3001 RMK A01 T02230144  RH  061%=      5-min Rain = 0
KLO1 221820Z 17007KT 22/15 A3001 RMK A01 T02220145  RH  062%=      5-min Rain = 0
KLO1 221821Z 17007KT 22/15 A3001 RMK A01 T02220145  RH  062%=      5-min Rain = 0
KLO1 221822Z 17005KT 22/15 A3001 RMK A01 T02220146  RH  062%=      5-min Rain = 0
KLO1 221823Z 13007KT 22/15 A3001 RMK A01 T02220147  RH  062%=      5-min Rain = 0
KLO1 221824Z 15010KT 22/15 A3001 RMK A01 T02230147  RH  062%=      5-min Rain = 0
KLO1 221825Z 15009KT 22/15 A30 RMK A01 T02230147  RH  062%=      5-min Rain = 0
KLO1 221826Z 15008KT 22/15 A30 RMK A01 T02240148  RH  062%=      5-min Rain = 0
KLO1 221827Z 14007KT 23/15 A30 RMK A01 T02250148  RH  061%=      5-min Rain = 0
KLO1 221828Z 14009KT 23/15 A30 RMK A01 T02250148  RH  061%=      5-min Rain = 0
KLO1 221829Z 14007KT 22/15 A3001 RMK A01 T02240147  RH  062%=      5-min Rain = 0
KLO1 221830Z 13006KT 22/15 A3001 RMK A01 T02230148  RH  062%=      5-min Rain = 0
KLO1 221831Z 14006KT 22/15 A3001 RMK A01 T02220146  RH  062%=      5-min Rain = 0
KLO1 221832Z 14009KT 22/15 A3001 RMK A01 T02210146  RH  063%=      5-min Rain = 0
KLO1 221833Z 13010KT 22/15 A3001 RMK A01 T02210147  RH  063%=      5-min Rain = 0
KLO1 221834Z 13007KT 22/15 A3001 RMK A01 T02220146  RH  062%=      5-min Rain = 0
KLO1 221835Z 12005KT 22/15 A3001 RMK A01 T02200147  RH  063%=      5-min Rain = 0
KLO1 221836Z 14008KT 22/15 A3001 RMK A01 T02200147  RH  063%=      5-min Rain = 0
KLO1 221837Z 15006KT 22/15 A3001 RMK A01 T02200146  RH  063%=      5-min Rain = 0
KLO1 221838Z 14006KT 22/15 A30 RMK A01 T02200147  RH  063%=      5-min Rain = 0
KLO1 221839Z 12006KT 22/15 A30 RMK A01 T02190147  RH  063%=      5-min Rain = 0
KLO1 221840Z 13006KT 22/15 A30 RMK A01 T02200147  RH  063%=      5-min Rain = 0
KLO1 221841Z 12009KT 22/15 A30 RMK A01 T02220148  RH  063%=      5-min Rain = 0
KLO1 221842Z 14010KT 22/15 A30 RMK A01 T02220147  RH  062%=      5-min Rain = 0
KLO1 221843Z 16010KT 22/15 A30 RMK A01 T02220146  RH  062%=      5-min Rain = 0
KLO1 221844Z 14009KT 22/15 A30 RMK A01 T02220146  RH  062%=      5-min Rain = 0
KLO1 221845Z 15009KT 22/15 A30 RMK A01 T02210146  RH  062%=      5-min Rain = 0
KLO1 221846Z 16008KT 22/14 A30 RMK A01 T02200144  RH  062%=      5-min Rain = 0
KLO1 221847Z 15010KT 22/15 A2999 RMK A01 T02190145  RH  063%=      5-min Rain = 0
KLO1 221848Z 14009KT 22/15 A2999 RMK A01 T02200146  RH  063%=      5-min Rain = 0
KLO1 221849Z 13010KT 22/15 A2999 RMK A01 T02210147  RH  063%=      5-min Rain = 0
KLO1 221850Z 14009KT 22/15 A2999 RMK A01 T02210147  RH  063%=      5-min Rain = 0
KLO1 221851Z 13010KT 22/15 A2999 RMK A01 T02210147  RH  063%=      5-min Rain = 0
KLO1 221852Z 13012KT 22/15 A2999 RMK A01 T02220147  RH  062%=      5-min Rain = 0
KLO1 221853Z 13012KT 22/15 A2999 RMK A01 T02230147  RH  062%=      5-min Rain = 0
KLO1 221854Z 14011KT 22/15 A2999 RMK A01 T02240147  RH  062%=      5-min Rain = 0
KLO1 221855Z 13011KT 22/15 A2999 RMK A01 T02240147  RH  062%=      5-min Rain = 0
KLO1 221856Z 13010KT 22/15 A2999 RMK A01 T02240147  RH  062%=      5-min Rain = 0
KLO1 221857Z 14007KT 22/15 A2999 RMK A01 T02230147  RH  062%=      5-min Rain = 0
KLO1 221858Z 14006KT 22/15 A2999 RMK A01 T02230148  RH  062%=      5-min Rain = 0
KLO1 221859Z 11007KT 22/15 A2999 RMK A01 T02230147  RH  062%=      5-min Rain = 0
KLO1 221900Z 14009KT 22/15 A2999 RMK A01 T02220147  RH  062%=      5-min Rain = 0
KLO1 221901Z 13010KT 22/15 A2999 RMK A01 T02230148  RH  062%=      5-min Rain = 0
KLO1 221902Z 13011KT 23/15 A2999 RMK A01 T02260147  RH  061%=      5-min Rain = 0
KLO1 221903Z 14010KT 23/15 A2999 RMK A01 T02260146  RH  060%=      5-min Rain = 0
KLO1 221904Z 15009KT 22/14 A2999 RMK A01 T02240144  RH  060%=      5-min Rain = 0
KLO1 221905Z 16008KT 22/14 A2999 RMK A01 T02220143  RH  061%=      5-min Rain = 0
KLO1 221906Z 14006KT 22/15 A2999 RMK A01 T02200145  RH  062%=      5-min Rain = 0
KLO1 221907Z 14007KT 22/15 A2999 RMK A01 T02200145  RH  062%=      5-min Rain = 0
KLO1 221908Z 13005KT 22/14 A2999 RMK A01 T02210144  RH  062%=      5-min Rain = 0
KLO1 221909Z 11005G10KT 22/15 A2998 RMK A01 T02210145  RH  062%=      5-min Rain = 0
KLO1 221910Z 13008KT 22/15 A2998 RMK A01 T02220146  RH  062%=      5-min Rain = 0
KLO1 221911Z 13009KT 23/15 A2998 RMK A01 T02250148  RH  062%=      5-min Rain = 0
KLO1 221912Z 13008KT 23/15 A2999 RMK A01 T02270147  RH  061%=      5-min Rain = 0
KLO1 221913Z 12009KT 23/15 A2999 RMK A01 T02270148  RH  061%=      5-min Rain = 0
KLO1 221914Z 12011KT 23/15 A2999 RMK A01 T02280149  RH  061%=      5-min Rain = 0
KLO1 221915Z 12009KT 23/15 A2999 RMK A01 T02270147  RH  061%=      5-min Rain = 0
KLO1 221916Z 11010KT 23/15 A2999 RMK A01 T02260149  RH  062%=      5-min Rain = 0
KLO1 221917Z 10012KT 23/15 A2998 RMK A01 T02250149  RH  062%=      5-min Rain = 0
KLO1 221918Z 10013KT 22/15 A2998 RMK A01 T02240149  RH  062%=      5-min Rain = 0
KLO1 221919Z 10012KT 22/15 A2999 RMK A01 T02240148  RH  062%=      5-min Rain = 0
KLO1 221920Z 10010KT 22/15 A2998 RMK A01 T02230150  RH  063%=      5-min Rain = 0
KLO1 221921Z 10011KT 22/15 A2998 RMK A01 T02230149  RH  063%=      5-min Rain = 0
KLO1 221922Z 11010KT 22/15 A2998 RMK A01 T02230149  RH  063%=      5-min Rain = 0
KLO1 221923Z 12012KT 22/15 A2998 RMK A01 T02230149  RH  063%=      5-min Rain = 0
KLO1 221924Z 11010KT 22/15 A2998 RMK A01 T02230149  RH  063%=      5-min Rain = 0
KLO1 221925Z 11010KT 22/15 A2998 RMK A01 T02220149  RH  063%=      5-min Rain = 0
KLO1 221926Z 11011KT 22/15 A2998 RMK A01 T02220150  RH  063%=      5-min Rain = 0
KLO1 221927Z 12012KT 22/15 A2998 RMK A01 T02240148  RH  062%=      5-min Rain = 0
KLO1 221928Z 12011KT 22/15 A2999 RMK A01 T02220148  RH  063%=      5-min Rain = 0
KLO1 221929Z 13012KT 22/15 A2999 RMK A01 T02230150  RH  063%=      5-min Rain = 0
KLO1 221930Z 13012KT 23/15 A2999 RMK A01 T02260149  RH  062%=      5-min Rain = 0
KLO1 221931Z 14010KT 23/15 A2999 RMK A01 T02260148  RH  061%=      5-min Rain = 0
KLO1 221932Z 14009KT 23/15 A2999 RMK A01 T02250146  RH  061%=      5-min Rain = 0
KLO1 221933Z 13011KT 22/15 A2999 RMK A01 T02240147  RH  062%=      5-min Rain = 0
KLO1 221934Z 13010KT 22/15 A2999 RMK A01 T02240147  RH  062%=      5-min Rain = 0
KLO1 221935Z 12013KT 22/15 A30 RMK A01 T02230147  RH  062%=      5-min Rain = 0
KLO1 221936Z 13013KT 22/15 A30 RMK A01 T02220147  RH  063%=      5-min Rain = 0
KLO1 221937Z 13011KT 22/15 A30 RMK A01 T02200146  RH  063%=      5-min Rain = 0
KLO1 221938Z 12010G15KT 22/15 A30 RMK A01 T02190146  RH  063%=      5-min Rain = 0
KLO1 221939Z 14012KT 22/15 A30 RMK A01 T02190146  RH  063%=      5-min Rain = 0
KLO1 221940Z 15010KT 22/15 A30 RMK A01 T02200146  RH  063%=      5-min Rain = 0
KLO1 221941Z 14010KT 22/15 A30 RMK A01 T02210146  RH  063%=      5-min Rain = 0
KLO1 221942Z 15009G15KT 22/15 A2999 RMK A01 T02210147  RH  063%=      5-min Rain = 0
KLO1 221943Z 15012KT 22/15 A2999 RMK A01 T02220147  RH  063%=      5-min Rain = 0
KLO1 221944Z 15010KT 22/15 A2999 RMK A01 T02210147  RH  063%=      5-min Rain = 0
KLO1 221945Z 13013KT 22/15 A2999 RMK A01 T02200147  RH  063%=      5-min Rain = 0
KLO1 221946Z 13012KT 22/15 A2999 RMK A01 T02210147  RH  063%=      5-min Rain = 0
KLO1 221947Z 13011KT 22/15 A2999 RMK A01 T02210147  RH  063%=      5-min Rain = 0
KLO1 221948Z 13012KT 22/15 A2999 RMK A01 T02210147  RH  063%=      5-min Rain = 0
KLO1 221949Z 11012KT 22/15 A2999 RMK A01 T02220149  RH  063%=      5-min Rain = 0
KLO1 221950Z 13012KT 22/15 A2999 RMK A01 T02240150  RH  063%=      5-min Rain = 0
KLO1 221951Z 14009KT 23/15 A2999 RMK A01 T02270151  RH  062%=      5-min Rain = 0
KLO1 221952Z 12014KT 23/15 A2999 RMK A01 T02290150  RH  061%=      5-min Rain = 0
KLO1 221953Z 13014KT 23/15 A2999 RMK A01 T02280148  RH  060%=      5-min Rain = 0
KLO1 221954Z 12013KT 23/15 A2999 RMK A01 T02260147  RH  061%=      5-min Rain = 0
KLO1 221955Z 12012KT 22/15 A2999 RMK A01 T02240147  RH  062%=      5-min Rain = 0
KLO1 221956Z 13011KT 22/15 A2999 RMK A01 T02230147  RH  062%=      5-min Rain = 0
KLO1 221957Z 13013KT 22/15 A2999 RMK A01 T02240147  RH  062%=      5-min Rain = 0
KLO1 221958Z 13011KT 22/15 A2999 RMK A01 T02240147  RH  062%=      5-min Rain = 0
KLO1 221959Z 13014KT 22/15 A2999 RMK A01 T02240147  RH  062%=      5-min Rain = 0
KLO1 222000Z 12012KT 22/15 A2999 RMK A01 T02230147  RH  062%=      5-min Rain = 0
KLO1 222001Z 13011KT 22/15 A2999 RMK A01 T02220148  RH  063%=      5-min Rain = 0
KLO1 222002Z 12012KT 22/15 A2998 RMK A01 T02220148  RH  063%=      5-min Rain = 0
KLO1 222003Z 13010KT 22/15 A2998 RMK A01 T02240149  RH  063%=      5-min Rain = 0
KLO1 222004Z 13011KT 23/15 A2998 RMK A01 T02250149  RH  062%=      5-min Rain = 0
KLO1 222005Z 12009KT 22/15 A2998 RMK A01 T02240149  RH  062%=      5-min Rain = 0
KLO1 222006Z 11009KT 22/15 A2998 RMK A01 T02240149  RH  062%=      5-min Rain = 0
KLO1 222007Z 12011KT 23/15 A2998 RMK A01 T02250150  RH  062%=      5-min Rain = 0
KLO1 222008Z 13011KT 22/15 A2998 RMK A01 T02240150  RH  063%=      5-min Rain = 0
KLO1 222009Z 12012KT 22/15 A2998 RMK A01 T02240149  RH  063%=      5-min Rain = 0
KLO1 222010Z 13009KT 22/15 A2998 RMK A01 T02240148  RH  062%=      5-min Rain = 0
KLO1 222011Z 11009KT 22/15 A2998 RMK A01 T02230149  RH  063%=      5-min Rain = 0
KLO1 222012Z 11010KT 22/15 A2998 RMK A01 T02230149  RH  063%=      5-min Rain = 0
KLO1 222013Z 12009KT 22/15 A2998 RMK A01 T02230149  RH  063%=      5-min Rain = 0
KLO1 222014Z 11010KT 22/15 A2998 RMK A01 T02240148  RH  062%=      5-min Rain = 0
KLO1 222015Z 11010KT 22/15 A2997 RMK A01 T02240149  RH  062%=      5-min Rain = 0
KLO1 222016Z 11008KT 22/15 A2997 RMK A01 T02240149  RH  063%=      5-min Rain = 0
KLO1 222017Z 12009KT 22/15 A2997 RMK A01 T02240149  RH  063%=      5-min Rain = 0
KLO1 222018Z 11007KT 22/15 A2997 RMK A01 T02230147  RH  062%=      5-min Rain = 0
KLO1 222019Z 11008KT 22/15 A2996 RMK A01 T02210149  RH  063%=      5-min Rain = 0
KLO1 222020Z 11007KT 22/15 A2996 RMK A01 T02220149  RH  063%=      5-min Rain = 0
KLO1 222021Z 10008KT 22/15 A2996 RMK A01 T02230149  RH  063%=      5-min Rain = 0
KLO1 222022Z 10012KT 22/15 A2997 RMK A01 T02230150  RH  063%=      5-min Rain = 0
KLO1 222023Z 11011KT 22/15 A2997 RMK A01 T02240150  RH  063%=      5-min Rain = 0
KLO1 222024Z 13010KT 23/15 A2997 RMK A01 T02250150  RH  062%=      5-min Rain = 0
KLO1 222025Z 14008KT 23/15 A2997 RMK A01 T02270151  RH  062%=      5-min Rain = 0
KLO1 222026Z 13008KT 23/15 A2997 RMK A01 T02300152  RH  061%=      5-min Rain = 0
KLO1 222027Z 12012KT 23/15 A2998 RMK A01 T02300151  RH  061%=      5-min Rain = 0
KLO1 222028Z 11011KT 23/15 A2998 RMK A01 T02280150  RH  062%=      5-min Rain = 0
KLO1 222029Z 12010KT 23/15 A2998 RMK A01 T02260149  RH  062%=      5-min Rain = 0
KLO1 222030Z 13009KT 22/15 A2998 RMK A01 T02240149  RH  063%=      5-min Rain = 0
KLO1 222031Z 12010KT 22/15 A2998 RMK A01 T02230150  RH  063%=      5-min Rain = 0
KLO1 222032Z 10010KT 22/15 A2998 RMK A01 T02230150  RH  063%=      5-min Rain = 0
KLO1 222033Z 12008KT 22/15 A2998 RMK A01 T02220150  RH  063%=      5-min Rain = 0
KLO1 222034Z 13008KT 22/15 A2998 RMK A01 T02220150  RH  064%=      5-min Rain = 0
KLO1 222035Z 15010KT 22/15 A2998 RMK A01 T02230150  RH  063%=      5-min Rain = 0
KLO1 222036Z 14011KT 22/15 A2998 RMK A01 T02240150  RH  063%=      5-min Rain = 0
KLO1 222037Z 13009KT 22/15 A2998 RMK A01 T02230149  RH  063%=      5-min Rain = 0
KLO1 222038Z 12008KT 22/15 A2998 RMK A01 T02230150  RH  063%=      5-min Rain = 0
KLO1 222039Z 11007KT 22/15 A2998 RMK A01 T02230150  RH  063%=      5-min Rain = 0
KLO1 222040Z 12008KT 22/15 A2998 RMK A01 T02230151  RH  063%=      5-min Rain = 0
KLO1 222041Z 11008KT 22/15 A2998 RMK A01 T02240150  RH  063%=      5-min Rain = 0
KLO1 222042Z 12010KT 22/15 A2998 RMK A01 T02240151  RH  063%=      5-min Rain = 0
KLO1 222043Z 13010KT 22/15 A2998 RMK A01 T02230150  RH  063%=      5-min Rain = 0
KLO1 222044Z 16008KT 22/15 A2998 RMK A01 T02230150  RH  063%=      5-min Rain = 0
KLO1 222045Z 13008KT 22/15 A2998 RMK A01 T02240150  RH  063%=      5-min Rain = 0
KLO1 222046Z 11011KT 23/15 A2998 RMK A01 T02250151  RH  063%=      5-min Rain = 0
KLO1 222047Z 11009KT 23/15 A2998 RMK A01 T02250151  RH  063%=      5-min Rain = 0
KLO1 222048Z 11009KT 22/15 A2998 RMK A01 T02230150  RH  063%=      5-min Rain = 0
KLO1 222049Z 12010KT 22/15 A2998 RMK A01 T02220151  RH  064%=      5-min Rain = 0
KLO1 222050Z 11009KT 22/15 A2998 RMK A01 T02220151  RH  064%=      5-min Rain = 0
KLO1 222051Z 11011KT 22/15 A2998 RMK A01 T02230152  RH  064%=      5-min Rain = 0
KLO1 222052Z 11010KT 22/15 A2998 RMK A01 T02240153  RH  064%=      5-min Rain = 0
KLO1 222053Z 10009KT 22/15 A2998 RMK A01 T02240152  RH  063%=      5-min Rain = 0
KLO1 222054Z 10009KT 22/15 A2998 RMK A01 T02240153  RH  064%=      5-min Rain = 0
KLO1 222055Z 13010KT 23/15 A2998 RMK A01 T02250152  RH  063%=      5-min Rain = 0
KLO1 222056Z 13010KT 23/15 A2998 RMK A01 T02260151  RH  063%=      5-min Rain = 0
KLO1 222057Z 12010KT 23/15 A2998 RMK A01 T02270151  RH  062%=      5-min Rain = 0
KLO1 222058Z 12010KT 23/15 A2998 RMK A01 T02270152  RH  062%=      5-min Rain = 0
KLO1 222059Z 11010KT 23/15 A2998 RMK A01 T02280152  RH  062%=      5-min Rain = 0
KLO1 222100Z 11009KT 23/15 A2997 RMK A01 T02280152  RH  062%=      5-min Rain = 0
KLO1 222101Z 11010KT 23/15 A2997 RMK A01 T02280152  RH  062%=      5-min Rain = 0
KLO1 222102Z 13007KT 23/15 A2997 RMK A01 T02280152  RH  062%=      5-min Rain = 0
KLO1 222103Z 14009KT 23/15 A2997 RMK A01 T02290152  RH  062%=      5-min Rain = 0
KLO1 222104Z 12010KT 23/15 A2997 RMK A01 T02290151  RH  061%=      5-min Rain = 0
KLO1 222105Z 11009KT 23/15 A2997 RMK A01 T02290151  RH  061%=      5-min Rain = 0
KLO1 222106Z 11008KT 23/15 A2997 RMK A01 T02300151  RH  061%=      5-min Rain = 0
KLO1 222107Z 11011KT 23/15 A2997 RMK A01 T02310152  RH  061%=      5-min Rain = 0
KLO1 222108Z 10010KT 23/15 A2997 RMK A01 T02310150  RH  060%=      5-min Rain = 0
KLO1 222109Z 10010KT 23/15 A2996 RMK A01 T02300151  RH  061%=      5-min Rain = 0
KLO1 222110Z 09009KT 23/15 A2996 RMK A01 T02290150  RH  061%=      5-min Rain = 0
KLO1 222111Z 10007KT 23/15 A2996 RMK A01 T02280150  RH  061%=      5-min Rain = 0
KLO1 222112Z 10009KT 23/15 A2996 RMK A01 T02270151  RH  062%=      5-min Rain = 0
KLO1 222113Z 09010KT 23/15 A2996 RMK A01 T02280151  RH  062%=      5-min Rain = 0
KLO1 222114Z 10010KT 23/15 A2996 RMK A01 T02280152  RH  062%=      5-min Rain = 0
KLO1 222115Z 09011KT 23/15 A2996 RMK A01 T02280152  RH  062%=      5-min Rain = 0
KLO1 222116Z 10009KT 23/15 A2996 RMK A01 T02280152  RH  062%=      5-min Rain = 0
KLO1 222117Z 11008KT 23/15 A2996 RMK A01 T02270152  RH  062%=      5-min Rain = 0
KLO1 222118Z 10009KT 23/15 A2996 RMK A01 T02270152  RH  062%=      5-min Rain = 0
KLO1 222119Z 10009KT 23/15 A2997 RMK A01 T02280152  RH  062%=      5-min Rain = 0
KLO1 222120Z 10010KT 23/15 A2997 RMK A01 T02280152  RH  062%=      5-min Rain = 0
KLO1 222121Z 10009KT 23/15 A2997 RMK A01 T02280151  RH  062%=      5-min Rain = 0
KLO1 222122Z 10008KT 23/15 A2997 RMK A01 T02280151  RH  062%=      5-min Rain = 0
KLO1 222123Z 10011KT 23/15 A2997 RMK A01 T02280151  RH  062%=      5-min Rain = 0
KLO1 222124Z 10010KT 23/15 A2997 RMK A01 T02280151  RH  062%=      5-min Rain = 0
KLO1 222125Z 10008KT 23/15 A2997 RMK A01 T02280152  RH  062%=      5-min Rain = 0
KLO1 222126Z 12008KT 23/15 A2997 RMK A01 T02280152  RH  062%=      5-min Rain = 0
KLO1 222127Z 12008KT 23/15 A2997 RMK A01 T02290152  RH  062%=      5-min Rain = 0
KLO1 222128Z 11009KT 23/15 A2997 RMK A01 T02300153  RH  062%=      5-min Rain = 0
KLO1 222129Z 11010KT 23/15 A2998 RMK A01 T02310152  RH  061%=      5-min Rain = 0
KLO1 222130Z 11010KT 23/15 A2998 RMK A01 T02290151  RH  061%=      5-min Rain = 0
KLO1 222131Z 11010KT 23/15 A2998 RMK A01 T02280152  RH  062%=      5-min Rain = 0
KLO1 222132Z 13010KT 23/15 A2998 RMK A01 T02280153  RH  063%=      5-min Rain = 0
KLO1 222133Z 12010KT 23/15 A2998 RMK A01 T02280153  RH  063%=      5-min Rain = 0
KLO1 222134Z 12009KT 23/15 A2998 RMK A01 T02280153  RH  063%=      5-min Rain = 0
KLO1 222135Z 12010KT 23/15 A2998 RMK A01 T02280152  RH  062%=      5-min Rain = 0
KLO1 222136Z 12011KT 23/15 A2998 RMK A01 T02280152  RH  062%=      5-min Rain = 0
KLO1 222137Z 12010KT 23/15 A2998 RMK A01 T02270152  RH  062%=      5-min Rain = 0
KLO1 222138Z 12008KT 23/15 A2998 RMK A01 T02270152  RH  063%=      5-min Rain = 0
KLO1 222139Z 11008KT 23/15 A2998 RMK A01 T02270152  RH  063%=      5-min Rain = 0
KLO1 222140Z 10009KT 23/15 A2998 RMK A01 T02280153  RH  063%=      5-min Rain = 0
KLO1 222141Z 13009KT 23/15 A2998 RMK A01 T02290154  RH  063%=      5-min Rain = 0
KLO1 222142Z 12009KT 23/15 A2998 RMK A01 T02300153  RH  062%=      5-min Rain = 0
KLO1 222143Z 13008KT 23/15 A2998 RMK A01 T02290152  RH  062%=      5-min Rain = 0
KLO1 222144Z 12008KT 23/15 A2998 RMK A01 T02290152  RH  061%=      5-min Rain = 0
KLO1 222145Z 11008KT 23/15 A2998 RMK A01 T02290152  RH  062%=      5-min Rain = 0
KLO1 222146Z 10009KT 23/15 A2998 RMK A01 T02290153  RH  062%=      5-min Rain = 0
KLO1 222147Z 10011KT 23/15 A2998 RMK A01 T02300153  RH  062%=      5-min Rain = 0
KLO1 222148Z 09009KT 23/16 A2998 RMK A01 T02310155  RH  062%=      5-min Rain = 0
KLO1 222149Z 08009KT 23/16 A2998 RMK A01 T02300157  RH  064%=      5-min Rain = 0
KLO1 222150Z 10008KT 23/16 A2998 RMK A01 T02280157  RH  064%=      5-min Rain = 0
KLO1 222151Z 10008KT 23/16 A2998 RMK A01 T02270157  RH  065%=      5-min Rain = 0
KLO1 222152Z 09008KT 23/16 A2998 RMK A01 T02270157  RH  065%=      5-min Rain = 0
KLO1 222153Z 08007KT 23/16 A2998 RMK A01 T02270158  RH  065%=      5-min Rain = 0
KLO1 222154Z 09008KT 23/16 A2998 RMK A01 T02260157  RH  065%=      5-min Rain = 0
KLO1 222155Z 10009KT 23/16 A2998 RMK A01 T02260156  RH  065%=      5-min Rain = 0
KLO1 222156Z 09010KT 23/16 A2998 RMK A01 T02250156  RH  065%=      5-min Rain = 0
KLO1 222157Z 09010KT 23/16 A2998 RMK A01 T02250156  RH  065%=      5-min Rain = 0
KLO1 222158Z 10009KT 22/16 A2998 RMK A01 T02240156  RH  066%=      5-min Rain = 0
KLO1 222159Z 08008KT 22/16 A2998 RMK A01 T02240157  RH  066%=      5-min Rain = 0
KLO1 222200Z 08008KT 22/16 A2998 RMK A01 T02240157  RH  066%=      5-min Rain = 0
KLO1 222201Z 09007KT 22/16 A2997 RMK A01 T02240157  RH  066%=      5-min Rain = 0
KLO1 222202Z 08008KT 22/16 A2997 RMK A01 T02240158  RH  066%=      5-min Rain = 0
KLO1 222203Z 09009KT 23/16 A2997 RMK A01 T02250158  RH  066%=      5-min Rain = 0
KLO1 222204Z 09008KT 23/16 A2997 RMK A01 T02260158  RH  065%=      5-min Rain = 0
KLO1 222205Z 09008KT 23/16 A2997 RMK A01 T02260157  RH  065%=      5-min Rain = 0
KLO1 222206Z 08007KT 23/16 A2997 RMK A01 T02260158  RH  065%=      5-min Rain = 0
KLO1 222207Z 08008KT 23/16 A2997 RMK A01 T02260158  RH  065%=      5-min Rain = 0
KLO1 222208Z 08009KT 23/16 A2997 RMK A01 T02260158  RH  065%=      5-min Rain = 0
KLO1 222209Z 07010KT 23/16 A2997 RMK A01 T02250157  RH  065%=      5-min Rain = 0
KLO1 222210Z 08009KT 22/16 A2997 RMK A01 T02240158  RH  066%=      5-min Rain = 0
KLO1 222211Z 09009KT 22/16 A2997 RMK A01 T02240159  RH  067%=      5-min Rain = 0
KLO1 222212Z 09011KT 22/16 A2998 RMK A01 T02240158  RH  066%=      5-min Rain = 0
KLO1 222213Z 09011KT 22/16 A2997 RMK A01 T02240157  RH  066%=      5-min Rain = 0
KLO1 222214Z 08009KT 22/16 A2997 RMK A01 T02240158  RH  066%=      5-min Rain = 0
KLO1 222215Z 09009KT 22/16 A2997 RMK A01 T02240159  RH  067%=      5-min Rain = 0
KLO1 222216Z 09011KT 23/16 A2997 RMK A01 T02250159  RH  066%=      5-min Rain = 0
KLO1 222217Z 08011KT 23/16 A2997 RMK A01 T02250158  RH  066%=      5-min Rain = 0
KLO1 222218Z 09010KT 23/16 A2997 RMK A01 T02250158  RH  066%=      5-min Rain = 0
KLO1 222219Z 09011KT 22/16 A2997 RMK A01 T02240158  RH  066%=      5-min Rain = 0
KLO1 222220Z 09010KT 22/16 A2997 RMK A01 T02240158  RH  066%=      5-min Rain = 0
KLO1 222221Z 09009KT 22/16 A2997 RMK A01 T02240159  RH  066%=      5-min Rain = 0
KLO1 222222Z 09010KT 23/16 A2997 RMK A01 T02250159  RH  066%=      5-min Rain = 0
KLO1 222223Z 09010KT 23/16 A2997 RMK A01 T02250158  RH  066%=      5-min Rain = 0
KLO1 222224Z 09011KT 22/16 A2997 RMK A01 T02240158  RH  066%=      5-min Rain = 0
KLO1 222225Z 09010KT 22/16 A2997 RMK A01 T02240158  RH  066%=      5-min Rain = 0
KLO1 222226Z 08009KT 22/16 A2997 RMK A01 T02240159  RH  067%=      5-min Rain = 0
KLO1 222227Z 09009KT 22/16 A2997 RMK A01 T02240159  RH  067%=      5-min Rain = 0
KLO1 222228Z 09010KT 22/16 A2997 RMK A01 T02240158  RH  067%=      5-min Rain = 0
KLO1 222229Z 09009KT 22/16 A2997 RMK A01 T02230158  RH  066%=      5-min Rain = 0
KLO1 222230Z 08009KT 22/16 A2997 RMK A01 T02230158  RH  067%=      5-min Rain = 0
KLO1 222231Z 07009KT 22/16 A2997 RMK A01 T02230158  RH  067%=      5-min Rain = 0
KLO1 222232Z 08008KT 22/16 A2997 RMK A01 T02220158  RH  067%=      5-min Rain = 0
KLO1 222233Z 09010KT 22/16 A2997 RMK A01 T02220159  RH  067%=      5-min Rain = 0
KLO1 222234Z 08008KT 22/16 A2997 RMK A01 T02220159  RH  067%=      5-min Rain = 0
KLO1 222235Z 09009KT 22/16 A2997 RMK A01 T02220159  RH  067%=      5-min Rain = 0
KLO1 222236Z 08008KT 22/16 A2997 RMK A01 T02220159  RH  067%=      5-min Rain = 0
KLO1 222237Z 09009KT 22/16 A2997 RMK A01 T02220159  RH  067%=      5-min Rain = 0
KLO1 222238Z 09010KT 22/16 A2997 RMK A01 T02220159  RH  067%=      5-min Rain = 0
KLO1 222239Z 10011KT 22/16 A2998 RMK A01 T02230159  RH  067%=      5-min Rain = 0
KLO1 222240Z 10013KT 22/16 A2998 RMK A01 T02240160  RH  067%=      5-min Rain = 0
KLO1 222241Z 10015KT 22/16 A2998 RMK A01 T02240159  RH  067%=      5-min Rain = 0
KLO1 222242Z 09013KT 22/16 A2998 RMK A01 T02220159  RH  067%=      5-min Rain = 0
KLO1 222243Z 08013KT 22/16 A2998 RMK A01 T02220159  RH  068%=      5-min Rain = 0
KLO1 222244Z 08013KT 22/16 A2998 RMK A01 T02210158  RH  068%=      5-min Rain = 0
KLO1 222245Z 08011KT 22/16 A2998 RMK A01 T02200158  RH  068%=      5-min Rain = 0
KLO1 222246Z 08011KT 22/16 A2998 RMK A01 T02200158  RH  068%=      5-min Rain = 0
KLO1 222247Z 08011KT 22/16 A2998 RMK A01 T02200158  RH  068%=      5-min Rain = 0
KLO1 222248Z 08010KT 22/16 A2998 RMK A01 T02190158  RH  068%=      5-min Rain = 0
KLO1 222249Z 08010KT 22/16 A2998 RMK A01 T02190158  RH  068%=      5-min Rain = 0
KLO1 222250Z 08009KT 22/16 A2998 RMK A01 T02190158  RH  068%=      5-min Rain = 0
KLO1 222251Z 08008KT 22/16 A2998 RMK A01 T02190158  RH  069%=      5-min Rain = 0
KLO1 222252Z 07007KT 22/16 A2998 RMK A01 T02180159  RH  069%=      5-min Rain = 0
KLO1 222253Z 07007KT 22/16 A2998 RMK A01 T02180159  RH  069%=      5-min Rain = 0
KLO1 222254Z 07007KT 22/16 A2998 RMK A01 T02180160  RH  070%=      5-min Rain = 0
KLO1 222255Z 07006KT 22/16 A2998 RMK A01 T02170161  RH  070%=      5-min Rain = 0
KLO1 222256Z 07007KT 22/16 A2998 RMK A01 T02170162  RH  071%=      5-min Rain = 0
KLO1 222257Z 08008KT 22/16 A2998 RMK A01 T02160162  RH  071%=      5-min Rain = 0
KLO1 222258Z 09011KT 22/16 A2998 RMK A01 T02160164  RH  072%=      5-min Rain = 0
KLO1 222259Z 09012KT 22/17 A2998 RMK A01 T02160165  RH  073%=      5-min Rain = 0
KLO1 222300Z 08012KT 22/17 A2998 RMK A01 T02150165  RH  073%=      5-min Rain = 0
KLO1 222301Z 08009KT 21/17 A2998 RMK A01 T02140165  RH  074%=      5-min Rain = 0
KLO1 222302Z 08012KT 21/16 A2998 RMK A01 T02130164  RH  073%=      5-min Rain = 0
KLO1 222303Z 08011KT 21/16 A2998 RMK A01 T02120163  RH  073%=      5-min Rain = 0
KLO1 222304Z 08011KT 21/16 A2998 RMK A01 T02120162  RH  073%=      5-min Rain = 0
KLO1 222305Z 07010KT 21/16 A2998 RMK A01 T02110162  RH  073%=      5-min Rain = 0
KLO1 222306Z 08010KT 21/16 A2998 RMK A01 T02110161  RH  073%=      5-min Rain = 0
KLO1 222307Z 07010KT 21/16 A2998 RMK A01 T02110161  RH  073%=      5-min Rain = 0
KLO1 222308Z 07010KT 21/16 A2998 RMK A01 T02110161  RH  073%=      5-min Rain = 0
KLO1 222309Z 07010KT 21/16 A2998 RMK A01 T02100161  RH  073%=      5-min Rain = 0
KLO1 222310Z 08013KT 21/16 A2998 RMK A01 T02100161  RH  073%=      5-min Rain = 0
KLO1 222311Z 08012KT 21/16 A2998 RMK A01 T02100160  RH  073%=      5-min Rain = 0
KLO1 222312Z 08011KT 21/16 A2998 RMK A01 T02100160  RH  073%=      5-min Rain = 0
KLO1 222313Z 08009KT 21/16 A2998 RMK A01 T02100161  RH  073%=      5-min Rain = 0
KLO1 222314Z 08011KT 21/16 A2998 RMK A01 T02100161  RH  073%=      5-min Rain = 0
KLO1 222315Z 07011KT 21/16 A2998 RMK A01 T02110161  RH  073%=      5-min Rain = 0
KLO1 222316Z 08009KT 21/16 A2998 RMK A01 T02100160  RH  073%=      5-min Rain = 0
KLO1 222317Z 07008KT 21/16 A2998 RMK A01 T02100160  RH  073%=      5-min Rain = 0
KLO1 222318Z 07007KT 21/16 A2998 RMK A01 T02100161  RH  073%=      5-min Rain = 0
KLO1 222319Z 07008KT 21/16 A2998 RMK A01 T02100161  RH  073%=      5-min Rain = 0
KLO1 222320Z 07008KT 21/16 A2997 RMK A01 T02100161  RH  074%=      5-min Rain = 0
KLO1 222321Z 07010G15KT 21/16 A2997 RMK A01 T02100160  RH  073%=      5-min Rain = 0
KLO1 222322Z 07011KT 21/16 A2997 RMK A01 T02100160  RH  073%=      5-min Rain = 0
KLO1 222323Z 07010KT 21/16 A2997 RMK A01 T02100160  RH  073%=      5-min Rain = 0
KLO1 222324Z 07010KT 21/16 A2997 RMK A01 T02100160  RH  073%=      5-min Rain = 0
KLO1 222325Z 07007KT 21/16 A2997 RMK A01 T02100161  RH  073%=      5-min Rain = 0
KLO1 222326Z 07007KT 21/16 A2997 RMK A01 T02100161  RH  074%=      5-min Rain = 0
KLO1 222327Z 07010KT 21/16 A2998 RMK A01 T02100161  RH  073%=      5-min Rain = 0
KLO1 222328Z 07008KT 21/16 A2998 RMK A01 T02090160  RH  073%=      5-min Rain = 0
KLO1 222329Z 07008KT 21/16 A2998 RMK A01 T02090160  RH  074%=      5-min Rain = 0
KLO1 222330Z 07008KT 21/16 A2997 RMK A01 T02090160  RH  074%=      5-min Rain = 0
KLO1 222331Z 07008KT 21/16 A2997 RMK A01 T02090160  RH  074%=      5-min Rain = 0
KLO1 222332Z 07007KT 21/16 A2997 RMK A01 T02090161  RH  074%=      5-min Rain = 0
KLO1 222333Z 07007KT 21/16 A2997 RMK A01 T02090161  RH  074%=      5-min Rain = 0
KLO1 222334Z 07008KT 21/16 A2997 RMK A01 T02090161  RH  074%=      5-min Rain = 0
KLO1 222335Z 06008KT 21/16 A2997 RMK A01 T02090160  RH  074%=      5-min Rain = 0
KLO1 222336Z 07008KT 21/16 A2997 RMK A01 T02090160  RH  074%=      5-min Rain = 0
KLO1 222337Z 07007KT 21/16 A2997 RMK A01 T02090160  RH  074%=      5-min Rain = 0
KLO1 222338Z 07006KT 21/16 A2997 RMK A01 T02090161  RH  074%=      5-min Rain = 0
KLO1 222339Z 07008KT 21/16 A2997 RMK A01 T02090161  RH  074%=      5-min Rain = 0
KLO1 222340Z 07008KT 21/16 A2997 RMK A01 T02090160  RH  074%=      5-min Rain = 0
KLO1 222341Z 08007KT 21/16 A2997 RMK A01 T02090160  RH  074%=      5-min Rain = 0
KLO1 222342Z 07010KT 21/16 A2997 RMK A01 T02090160  RH  074%=      5-min Rain = 0
KLO1 222343Z 08010KT 21/16 A2997 RMK A01 T02090159  RH  073%=      5-min Rain = 0
KLO1 222344Z 08008KT 21/16 A2997 RMK A01 T02090159  RH  073%=      5-min Rain = 0
KLO1 222345Z 08007KT 21/16 A2997 RMK A01 T02080159  RH  073%=      5-min Rain = 0
KLO1 222346Z 08007KT 21/16 A2997 RMK A01 T02080160  RH  074%=      5-min Rain = 0
KLO1 222347Z 08010KT 21/16 A2997 RMK A01 T02080159  RH  073%=      5-min Rain = 0
KLO1 222348Z 07007KT 21/16 A2997 RMK A01 T02080159  RH  073%=      5-min Rain = 0
KLO1 222349Z 07009KT 21/16 A2997 RMK A01 T02080159  RH  073%=      5-min Rain = 0
KLO1 222350Z 08009KT 21/16 A2997 RMK A01 T02080159  RH  073%=      5-min Rain = 0
KLO1 222351Z 08009KT 21/16 A2997 RMK A01 T02080160  RH  074%=      5-min Rain = 0
KLO1 222352Z 07009KT 21/16 A2997 RMK A01 T02080160  RH  074%=      5-min Rain = 0
KLO1 222353Z 07007KT 21/16 A2997 RMK A01 T02090160  RH  074%=      5-min Rain = 0
KLO1 222354Z 07006KT 21/16 A2996 RMK A01 T02080160  RH  074%=      5-min Rain = 0
KLO1 222355Z 07008KT 21/16 A2996 RMK A01 T02080160  RH  074%=      5-min Rain = 0
KLO1 222356Z 08007KT 21/16 A2996 RMK A01 T02080160  RH  074%=      5-min Rain = 0
KLO1 222357Z 08007KT 21/16 A2997 RMK A01 T02080160  RH  074%=      5-min Rain = 0
KLO1 222358Z 08010KT 21/16 A2997 RMK A01 T02090161  RH  074%=      5-min Rain = 0
KLO1 222359Z 08010KT 21/16 A2997 RMK A01 T02090160  RH  074%=      5-min Rain = 0
KLO1 230000Z 08010KT 21/16 A2997 RMK A01 T02090161  RH  074%=      5-min Rain = 0
KLO1 230001Z 08010KT 21/16 A2997 RMK A01 T02090160  RH  074%=      5-min Rain = 0
KLO1 230002Z 08009KT 21/16 A2997 RMK A01 T02100161  RH  073%=      5-min Rain = 0
KLO1 230003Z 08011KT 21/16 A2997 RMK A01 T02100161  RH  073%=      5-min Rain = 0
KLO1 230004Z 09010KT 21/16 A2997 RMK A01 T02100161  RH  073%=      5-min Rain = 0
KLO1 230005Z 08012KT 21/16 A2997 RMK A01 T02100161  RH  073%=      5-min Rain = 0
KLO1 230006Z 08011KT 21/16 A2997 RMK A01 T02100160  RH  073%=      5-min Rain = 0
KLO1 230007Z 08011KT 21/16 A2997 RMK A01 T02100161  RH  073%=      5-min Rain = 0
KLO1 230008Z 08012KT 21/16 A2997 RMK A01 T02100161  RH  073%=      5-min Rain = 0
KLO1 230009Z 08012KT 21/16 A2997 RMK A01 T02100161  RH  073%=      5-min Rain = 0
KLO1 230010Z 08011KT 21/16 A2996 RMK A01 T02100161  RH  073%=      5-min Rain = 0
KLO1 230011Z 08009KT 21/16 A2996 RMK A01 T02100161  RH  074%=      5-min Rain = 0
KLO1 230012Z 08011KT 21/16 A2996 RMK A01 T02100161  RH  073%=      5-min Rain = 0
KLO1 230013Z 08009KT 21/16 A2996 RMK A01 T02100161  RH  073%=      5-min Rain = 0
KLO1 230014Z 08011KT 21/16 A2996 RMK A01 T02100161  RH  074%=      5-min Rain = 0
KLO1 230015Z 08010KT 21/16 A2996 RMK A01 T02110161  RH  073%=      5-min Rain = 0
KLO1 230016Z 08009KT 21/16 A2996 RMK A01 T02110162  RH  073%=      5-min Rain = 0
KLO1 230017Z 08007KT 21/16 A2997 RMK A01 T02110162  RH  074%=      5-min Rain = 0
KLO1 230018Z 08008KT 21/16 A2997 RMK A01 T02110162  RH  073%=      5-min Rain = 0
KLO1 230019Z 08009KT 21/16 A2997 RMK A01 T02100162  RH  074%=      5-min Rain = 0
KLO1 230020Z 08008KT 21/16 A2997 RMK A01 T02110161  RH  073%=      5-min Rain = 0
KLO1 230021Z 08010KT 21/16 A2997 RMK A01 T02110162  RH  073%=      5-min Rain = 0
KLO1 230022Z 08009KT 21/16 A2997 RMK A01 T02110161  RH  073%=      5-min Rain = 0
KLO1 230023Z 09010KT 21/16 A2997 RMK A01 T02110162  RH  073%=      5-min Rain = 0
KLO1 230024Z 09009KT 21/16 A2997 RMK A01 T02110161  RH  073%=      5-min Rain = 0
KLO1 230025Z 08011KT 21/16 A2997 RMK A01 T02110161  RH  073%=      5-min Rain = 0
KLO1 230026Z 08010KT 21/16 A2997 RMK A01 T02110161  RH  073%=      5-min Rain = 0
KLO1 230027Z 08008KT 21/16 A2997 RMK A01 T02110162  RH  073%=      5-min Rain = 0
KLO1 230028Z 09010KT 21/16 A2997 RMK A01 T02110162  RH  073%=      5-min Rain = 0
KLO1 230029Z 07009KT 21/16 A2996 RMK A01 T02110161  RH  073%=      5-min Rain = 0
KLO1 230030Z 07011KT 21/16 A2996 RMK A01 T02110161  RH  073%=      5-min Rain = 0
KLO1 230031Z 08010KT 21/16 A2996 RMK A01 T02110161  RH  073%=      5-min Rain = 0
KLO1 230032Z 09011KT 21/16 A2997 RMK A01 T02110161  RH  073%=      5-min Rain = 0
KLO1 230033Z 08010KT 21/16 A2997 RMK A01 T02110161  RH  073%=      5-min Rain = 0
KLO1 230034Z 08008KT 21/16 A2997 RMK A01 T02110161  RH  073%=      5-min Rain = 0
KLO1 230035Z 08007KT 21/16 A2997 RMK A01 T02110162  RH  073%=      5-min Rain = 0
KLO1 230036Z 08010KT 21/16 A2997 RMK A01 T02110161  RH  073%=      5-min Rain = 0
KLO1 230037Z 08009KT 21/16 A2997 RMK A01 T02110161  RH  073%=      5-min Rain = 0
KLO1 230038Z 08009KT 21/16 A2997 RMK A01 T02110161  RH  073%=      5-min Rain = 0
KLO1 230039Z 08008KT 21/16 A2997 RMK A01 T02100161  RH  073%=      5-min Rain = 0
KLO1 230040Z 07008KT 21/16 A2997 RMK A01 T02100161  RH  073%=      5-min Rain = 0
KLO1 230041Z 08008KT 21/16 A2997 RMK A01 T02100161  RH  073%=      5-min Rain = 0
KLO1 230042Z 08009KT 21/16 A2997 RMK A01 T02100161  RH  073%=      5-min Rain = 0
KLO1 230043Z 08011KT 21/16 A2997 RMK A01 T02100161  RH  073%=      5-min Rain = 0
KLO1 230044Z 08010KT 21/16 A2997 RMK A01 T02100160  RH  073%=      5-min Rain = 0
KLO1 230045Z 08007KT 21/16 A2997 RMK A01 T02100161  RH  073%=      5-min Rain = 0
KLO1 230046Z 08008KT 21/16 A2997 RMK A01 T02100161  RH  073%=      5-min Rain = 0
KLO1 230047Z 07008KT 21/16 A2997 RMK A01 T02110161  RH  073%=      5-min Rain = 0
KLO1 230048Z 08007KT 21/16 A2997 RMK A01 T02110161  RH  073%=      5-min Rain = 0
KLO1 230049Z 08007KT 21/16 A2997 RMK A01 T02110161  RH  073%=      5-min Rain = 0
KLO1 230050Z 07009KT 21/16 A2997 RMK A01 T02110161  RH  073%=      5-min Rain = 0
KLO1 230051Z 08009KT 21/16 A2997 RMK A01 T02110160  RH  073%=      5-min Rain = 0
KLO1 230052Z 08008KT 21/16 A2997 RMK A01 T02110161  RH  073%=      5-min Rain = 0
KLO1 230053Z 07009KT 21/16 A2997 RMK A01 T02120161  RH  073%=      5-min Rain = 0
KLO1 230054Z 08007KT 21/16 A2997 RMK A01 T02120161  RH  073%=      5-min Rain = 0
KLO1 230055Z 08009KT 21/16 A2997 RMK A01 T02110161  RH  073%=      5-min Rain = 0
KLO1 230056Z 08010KT 21/16 A2997 RMK A01 T02110160  RH  073%=      5-min Rain = 0
KLO1 230057Z 08011KT 21/16 A2997 RMK A01 T02110160  RH  073%=      5-min Rain = 0
KLO1 230058Z 08011KT 21/16 A2997 RMK A01 T02100160  RH  073%=      5-min Rain = 0
KLO1 230059Z 08009KT 21/16 A2997 RMK A01 T02110160  RH  073%=      5-min Rain = 0
KLO1 230100Z 09009KT 21/16 A2997 RMK A01 T02110160  RH  073%=      5-min Rain = 0
KLO1 230101Z 09008KT 21/16 A2997 RMK A01 T02110160  RH  073%=      5-min Rain = 0
KLO1 230102Z 09008KT 21/16 A2997 RMK A01 T02110161  RH  073%=      5-min Rain = 0
KLO1 230103Z 09011KT 21/16 A2997 RMK A01 T02110161  RH  073%=      5-min Rain = 0
KLO1 230104Z 09009KT 21/16 A2997 RMK A01 T02110161  RH  073%=      5-min Rain = 0
KLO1 230105Z 09009KT 21/16 A2997 RMK A01 T02110161  RH  073%=      5-min Rain = 0
KLO1 230106Z 09010KT 21/16 A2997 RMK A01 T02110161  RH  073%=      5-min Rain = 0
KLO1 230107Z 09011KT 21/16 A2998 RMK A01 T02110160  RH  073%=      5-min Rain = 0
KLO1 230108Z 09011KT 21/16 A2997 RMK A01 T02110160  RH  073%=      5-min Rain = 0
KLO1 230109Z 09010KT 21/16 A2998 RMK A01 T02110160  RH  073%=      5-min Rain = 0
KLO1 230110Z 09009KT 21/16 A2998 RMK A01 T02100160  RH  073%=      5-min Rain = 0
KLO1 230111Z 09009KT 21/16 A2998 RMK A01 T02100160  RH  073%=      5-min Rain = 0
KLO1 230112Z 09009KT 21/16 A2998 RMK A01 T02100160  RH  073%=      5-min Rain = 0
KLO1 230113Z 10008KT 21/16 A2998 RMK A01 T02100160  RH  073%=      5-min Rain = 0
KLO1 230114Z 09009KT 21/16 A2998 RMK A01 T02100160  RH  073%=      5-min Rain = 0
KLO1 230115Z 09008KT 21/16 A2998 RMK A01 T02100160  RH  073%=      5-min Rain = 0
KLO1 230116Z 09009KT 21/16 A2998 RMK A01 T02100160  RH  073%=      5-min Rain = 0
KLO1 230117Z 09010KT 21/16 A2998 RMK A01 T02100160  RH  073%=      5-min Rain = 0
KLO1 230118Z 10010KT 21/16 A2998 RMK A01 T02100160  RH  073%=      5-min Rain = 0
KLO1 230119Z 10009KT 21/16 A2998 RMK A01 T02100160  RH  073%=      5-min Rain = 0
KLO1 230120Z 10008KT 21/16 A2998 RMK A01 T02100160  RH  073%=      5-min Rain = 0
KLO1 230121Z 10009KT 21/16 A2998 RMK A01 T02100160  RH  073%=      5-min Rain = 0
KLO1 230122Z 10008KT 21/16 A2998 RMK A01 T02100160  RH  073%=      5-min Rain = 0
KLO1 230123Z 10007KT 21/16 A2998 RMK A01 T02100160  RH  073%=      5-min Rain = 0
KLO1 230124Z 10008KT 21/16 A2997 RMK A01 T02100161  RH  073%=      5-min Rain = 0
KLO1 230125Z 09009KT 21/16 A2997 RMK A01 T02100161  RH  074%=      5-min Rain = 0
KLO1 230126Z 10011KT 21/16 A2997 RMK A01 T02090160  RH  073%=      5-min Rain = 0
KLO1 230127Z 10010KT 21/16 A2997 RMK A01 T02090160  RH  073%=      5-min Rain = 0
KLO1 230128Z 10010KT 21/16 A2997 RMK A01 T02090160  RH  073%=      5-min Rain = 0
KLO1 230129Z 10011KT 21/16 A2997 RMK A01 T02090160  RH  073%=      5-min Rain = 0
KLO1 230130Z 10011KT 21/16 A2997 RMK A01 T02090159  RH  073%=      5-min Rain = 0
KLO1 230131Z 09010KT 21/16 A2997 RMK A01 T02090159  RH  073%=      5-min Rain = 0
KLO1 230132Z 10009KT 21/16 A2997 RMK A01 T02090159  RH  073%=      5-min Rain = 0
KLO1 230133Z 09010KT 21/16 A2997 RMK A01 T02090159  RH  073%=      5-min Rain = 0
KLO1 230134Z 10011KT 21/16 A2997 RMK A01 T02080159  RH  073%=      5-min Rain = 0
KLO1 230135Z 09010KT 21/16 A2997 RMK A01 T02080159  RH  073%=      5-min Rain = 0
KLO1 230136Z 10009KT 21/16 A2997 RMK A01 T02080159  RH  073%=      5-min Rain = 0
KLO1 230137Z 09010KT 21/16 A2997 RMK A01 T02080159  RH  073%=      5-min Rain = 0
KLO1 230138Z 10009KT 21/16 A2997 RMK A01 T02080159  RH  074%=      5-min Rain = 0
KLO1 230139Z 10009KT 21/16 A2997 RMK A01 T02080160  RH  074%=      5-min Rain = 0
KLO1 230140Z 09009KT 21/16 A2997 RMK A01 T02080159  RH  074%=      5-min Rain = 0
KLO1 230141Z 09009KT 21/16 A2997 RMK A01 T02080160  RH  074%=      5-min Rain = 0
KLO1 230142Z 09010KT 21/16 A2997 RMK A01 T02080160  RH  074%=      5-min Rain = 0
KLO1 230143Z 09009KT 21/16 A2997 RMK A01 T02080160  RH  074%=      5-min Rain = 0
KLO1 230144Z 09008KT 21/16 A2997 RMK A01 T02080160  RH  074%=      5-min Rain = 0
KLO1 230145Z 09008KT 21/16 A2997 RMK A01 T02080160  RH  074%=      5-min Rain = 0
KLO1 230146Z 09008KT 21/16 A2997 RMK A01 T02070160  RH  074%=      5-min Rain = 0
KLO1 230147Z 09008KT 21/16 A2997 RMK A01 T02070160  RH  074%=      5-min Rain = 0
KLO1 230148Z 09007KT 21/16 A2997 RMK A01 T02070160  RH  074%=      5-min Rain = 0
KLO1 230149Z 09007KT 21/16 A2997 RMK A01 T02060160  RH  075%=      5-min Rain = 0
KLO1 230150Z 09008KT 21/16 A2997 RMK A01 T02060160  RH  075%=      5-min Rain = 0
KLO1 230151Z 09007KT 21/16 A2997 RMK A01 T02060160  RH  075%=      5-min Rain = 0
KLO1 230152Z 09008KT 21/16 A2997 RMK A01 T02060160  RH  075%=      5-min Rain = 0
KLO1 230153Z 08007KT 21/16 A2998 RMK A01 T02060160  RH  075%=      5-min Rain = 0
KLO1 230154Z 09008KT 21/16 A2998 RMK A01 T02060160  RH  075%=      5-min Rain = 0
KLO1 230155Z 09008KT 21/16 A2998 RMK A01 T02060160  RH  075%=      5-min Rain = 0
KLO1 230156Z 09008KT 21/16 A2998 RMK A01 T02060160  RH  075%=      5-min Rain = 0
KLO1 230157Z 09008KT 21/16 A2998 RMK A01 T02060160  RH  075%=      5-min Rain = 0
KLO1 230158Z 09008KT 21/16 A2998 RMK A01 T02050160  RH  075%=      5-min Rain = 0
KLO1 230159Z 09008KT 21/16 A2998 RMK A01 T02050159  RH  075%=      5-min Rain = 0
KLO1 230200Z 09009KT 21/16 A2998 RMK A01 T02050159  RH  075%=      5-min Rain = 0
KLO1 230201Z 10008KT 21/16 A2998 RMK A01 T02050159  RH  075%=      5-min Rain = 0
KLO1 230202Z 10008KT 21/16 A2998 RMK A01 T02050159  RH  075%=      5-min Rain = 0
KLO1 230203Z 10008KT 21/16 A2998 RMK A01 T02060159  RH  075%=      5-min Rain = 0
KLO1 230204Z 10008KT 21/16 A2998 RMK A01 T02060159  RH  075%=      5-min Rain = 0
KLO1 230205Z 09007KT 21/16 A2998 RMK A01 T02060159  RH  075%=      5-min Rain = 0
KLO1 230206Z 10007KT 21/16 A2998 RMK A01 T02060159  RH  075%=      5-min Rain = 0
KLO1 230207Z 10007KT 21/16 A2998 RMK A01 T02060159  RH  075%=      5-min Rain = 0
KLO1 230208Z 09007KT 21/16 A2998 RMK A01 T02050159  RH  075%=      5-min Rain = 0
KLO1 230209Z 10007KT 21/16 A2998 RMK A01 T02050159  RH  075%=      5-min Rain = 0
KLO1 230210Z 09006KT 21/16 A2998 RMK A01 T02050160  RH  075%=      5-min Rain = 0
KLO1 230211Z 10006KT 21/16 A2998 RMK A01 T02050160  RH  075%=      5-min Rain = 0
KLO1 230212Z 10007KT 21/16 A2998 RMK A01 T02050160  RH  075%=      5-min Rain = 0
KLO1 230213Z 10006KT 21/16 A2998 RMK A01 T02050159  RH  075%=      5-min Rain = 0
KLO1 230214Z 10005KT 21/16 A2998 RMK A01 T02050159  RH  075%=      5-min Rain = 0
KLO1 230215Z 10006KT 21/16 A2998 RMK A01 T02050159  RH  075%=      5-min Rain = 0
KLO1 230216Z 11005KT 21/16 A2998 RMK A01 T02050159  RH  075%=      5-min Rain = 0
KLO1 230217Z 10005KT 21/16 A2998 RMK A01 T02050159  RH  075%=      5-min Rain = 0
KLO1 230218Z 10004KT 21/16 A2998 RMK A01 T02050159  RH  075%=      5-min Rain = 0
KLO1 230219Z 10004KT 21/16 A2998 RMK A01 T02050160  RH  075%=      5-min Rain = 0
KLO1 230220Z 10004KT 21/16 A2998 RMK A01 T02050160  RH  075%=      5-min Rain = 0
KLO1 230221Z 10005KT 21/16 A2999 RMK A01 T02050159  RH  075%=      5-min Rain = 0
KLO1 230222Z 10004KT 21/16 A2999 RMK A01 T02050159  RH  075%=      5-min Rain = 0
KLO1 230223Z 10005KT 21/16 A2999 RMK A01 T02050159  RH  075%=      5-min Rain = 0
KLO1 230224Z 10005KT 21/16 A2999 RMK A01 T02050159  RH  075%=      5-min Rain = 0
KLO1 230225Z 10004KT 21/16 A2999 RMK A01 T02050159  RH  075%=      5-min Rain = 0
KLO1 230226Z 09004KT 21/16 A2999 RMK A01 T02050159  RH  075%=      5-min Rain = 0
KLO1 230227Z 11004KT 21/16 A2999 RMK A01 T02050160  RH  075%=      5-min Rain = 0
KLO1 230228Z 10004KT 21/16 A2999 RMK A01 T02050160  RH  075%=      5-min Rain = 0
KLO1 230229Z 09005KT 21/16 A2999 RMK A01 T02050160  RH  075%=      5-min Rain = 0
KLO1 230230Z 09005KT 21/16 A2999 RMK A01 T02050160  RH  075%=      5-min Rain = 0
KLO1 230231Z 09005KT 21/16 A2999 RMK A01 T02050160  RH  076%=      5-min Rain = 0
KLO1 230232Z 09005KT 21/16 A2999 RMK A01 T02050160  RH  076%=      5-min Rain = 0
KLO1 230233Z 09005KT 20/16 A2999 RMK A01 T02040160  RH  076%=      5-min Rain = 0
KLO1 230234Z 09005KT 20/16 A2999 RMK A01 T02040160  RH  076%=      5-min Rain = 0
KLO1 230235Z 09005KT 20/16 A2999 RMK A01 T02040160  RH  076%=      5-min Rain = 0
KLO1 230236Z 09005KT 20/16 A2999 RMK A01 T02040160  RH  076%=      5-min Rain = 0
KLO1 230237Z 09005KT 20/16 A2999 RMK A01 T02040160  RH  076%=      5-min Rain = 0
KLO1 230238Z 09005KT 20/16 A2999 RMK A01 T02040160  RH  076%=      5-min Rain = 0
KLO1 230239Z 09005KT 20/16 A2999 RMK A01 T02040159  RH  076%=      5-min Rain = 0
KLO1 230240Z 09004KT 20/16 A2999 RMK A01 T02040160  RH  076%=      5-min Rain = 0
KLO1 230241Z 09005KT 20/16 A2999 RMK A01 T02040160  RH  076%=      5-min Rain = 0
KLO1 230242Z 09005KT 20/16 A2999 RMK A01 T02040160  RH  076%=      5-min Rain = 0
KLO1 230243Z 09005KT 20/16 A2999 RMK A01 T02040161  RH  076%=      5-min Rain = 0
KLO1 230244Z 09005KT 20/16 A2999 RMK A01 T02040160  RH  076%=      5-min Rain = 0
KLO1 230245Z 08005KT 20/16 A2999 RMK A01 T02040160  RH  076%=      5-min Rain = 0
KLO1 230246Z 08005KT 20/16 A2999 RMK A01 T02030160  RH  076%=      5-min Rain = 0
KLO1 230247Z 08005KT 20/16 A2999 RMK A01 T02030160  RH  076%=      5-min Rain = 0
KLO1 230248Z 09005KT 20/16 A2999 RMK A01 T02030160  RH  076%=      5-min Rain = 0
KLO1 230249Z 08005KT 20/16 A2999 RMK A01 T02030160  RH  076%=      5-min Rain = 0
KLO1 230250Z 09006KT 20/16 A2999 RMK A01 T02020160  RH  076%=      5-min Rain = 0
KLO1 230251Z 09006KT 20/16 A2999 RMK A01 T02020160  RH  077%=      5-min Rain = 0
KLO1 230252Z 09006KT 20/16 A2999 RMK A01 T02020160  RH  077%=      5-min Rain = 0
KLO1 230253Z 09005KT 20/16 A2999 RMK A01 T02020160  RH  077%=      5-min Rain = 0
KLO1 230254Z 09005KT 20/16 A2999 RMK A01 T02020160  RH  077%=      5-min Rain = 0
KLO1 230255Z 09005KT 20/16 A2999 RMK A01 T02020161  RH  077%=      5-min Rain = 0
KLO1 230256Z 09005KT 20/16 A2999 RMK A01 T02020160  RH  077%=      5-min Rain = 0
KLO1 230257Z 09006KT 20/16 A2999 RMK A01 T02020160  RH  077%=      5-min Rain = 0
KLO1 230258Z 09005KT 20/16 A2999 RMK A01 T02020161  RH  077%=      5-min Rain = 0
KLO1 230259Z 09006KT 20/16 A2999 RMK A01 T02020161  RH  077%=      5-min Rain = 0
KLO1 230300Z 09005KT 20/16 A2999 RMK A01 T02020160  RH  077%=      5-min Rain = 0
KLO1 230301Z 09006KT 20/16 A2999 RMK A01 T02010160  RH  077%=      5-min Rain = 0
KLO1 230302Z 09006KT 20/16 A2999 RMK A01 T02020160  RH  077%=      5-min Rain = 0
KLO1 230303Z 09005KT 20/16 A2999 RMK A01 T02010160  RH  077%=      5-min Rain = 0
KLO1 230304Z 08006KT 20/16 A2999 RMK A01 T02020160  RH  077%=      5-min Rain = 0
KLO1 230305Z 08006KT 20/16 A2999 RMK A01 T02010160  RH  077%=      5-min Rain = 0
KLO1 230306Z 08006KT 20/16 A2999 RMK A01 T02010160  RH  077%=      5-min Rain = 0
KLO1 230307Z 08006KT 20/16 A2999 RMK A01 T02000159  RH  077%=      5-min Rain = 0
KLO1 230308Z 08006KT 20/16 A2999 RMK A01 T02000159  RH  077%=      5-min Rain = 0
KLO1 230309Z 08006KT 20/16 A2999 RMK A01 T02000159  RH  077%=      5-min Rain = 0
KLO1 230310Z 08006KT 20/16 A2999 RMK A01 T01990159  RH  077%=      5-min Rain = 0
KLO1 230311Z 08006KT 20/16 A2999 RMK A01 T01990159  RH  077%=      5-min Rain = 0
KLO1 230312Z 08006KT 20/16 A2999 RMK A01 T01990158  RH  078%=      5-min Rain = 0
KLO1 230313Z 08006KT 20/16 A2999 RMK A01 T01980158  RH  078%=      5-min Rain = 0
KLO1 230314Z 08005KT 20/16 A2999 RMK A01 T01980159  RH  078%=      5-min Rain = 0
KLO1 230315Z 08005KT 20/16 A2999 RMK A01 T01970158  RH  078%=      5-min Rain = 0
KLO1 230316Z 08005KT 20/16 A2999 RMK A01 T01960158  RH  078%=      5-min Rain = 0
KLO1 230317Z 08005KT 20/16 A2999 RMK A01 T01960158  RH  079%=      5-min Rain = 0
KLO1 230318Z 08005KT 20/16 A2999 RMK A01 T01960158  RH  079%=      5-min Rain = 0
KLO1 230319Z 08005KT 20/16 A2999 RMK A01 T01960158  RH  079%=      5-min Rain = 0
KLO1 230320Z 09006KT 20/16 A2999 RMK A01 T01950158  RH  079%=      5-min Rain = 0
KLO1 230321Z 09006KT 20/16 A2999 RMK A01 T01950158  RH  079%=      5-min Rain = 0
KLO1 230322Z 09006KT 20/16 A2999 RMK A01 T01950159  RH  080%=      5-min Rain = 0
KLO1 230323Z 09006KT 19/16 A2999 RMK A01 T01940158  RH  080%=      5-min Rain = 0
KLO1 230324Z 09005KT 19/16 A2999 RMK A01 T01940158  RH  080%=      5-min Rain = 0
KLO1 230325Z 09005KT 19/16 A2999 RMK A01 T01940158  RH  080%=      5-min Rain = 0
KLO1 230326Z 09005KT 19/16 A2999 RMK A01 T01930158  RH  080%=      5-min Rain = 0
KLO1 230327Z 09005KT 19/16 A2999 RMK A01 T01930158  RH  080%=      5-min Rain = 0
KLO1 230328Z 09005KT 19/16 A2999 RMK A01 T01920158  RH  080%=      5-min Rain = 0
KLO1 230329Z 09005KT 19/16 A2999 RMK A01 T01920157  RH  081%=      5-min Rain = 0
KLO1 230330Z 08005KT 19/16 A2999 RMK A01 T01910158  RH  081%=      5-min Rain = 0
KLO1 230331Z 08004KT 19/16 A2999 RMK A01 T01910157  RH  081%=      5-min Rain = 0
KLO1 230332Z 08004KT 19/16 A2999 RMK A01 T01910157  RH  081%=      5-min Rain = 0
KLO1 230333Z 08005KT 19/16 A2999 RMK A01 T01900157  RH  081%=      5-min Rain = 0
KLO1 230334Z 08005KT 19/16 A2999 RMK A01 T01900157  RH  081%=      5-min Rain = 0
KLO1 230335Z 08004KT 19/16 A2999 RMK A01 T01900157  RH  081%=      5-min Rain = 0
KLO1 230336Z 08004KT 19/16 A2999 RMK A01 T01900157  RH  081%=      5-min Rain = 0
KLO1 230337Z 08005KT 19/16 A2999 RMK A01 T01900157  RH  081%=      5-min Rain = 0
KLO1 230338Z 08004KT 19/16 A2999 RMK A01 T01900157  RH  081%=      5-min Rain = 0
KLO1 230339Z 08005KT 19/16 A2999 RMK A01 T01900157  RH  081%=      5-min Rain = 0
KLO1 230340Z 08004KT 19/16 A2999 RMK A01 T01910157  RH  081%=      5-min Rain = 0
KLO1 230341Z 08005KT 19/16 A2999 RMK A01 T01910157  RH  081%=      5-min Rain = 0
KLO1 230342Z 08005KT 19/16 A2999 RMK A01 T01910157  RH  081%=      5-min Rain = 0
KLO1 230343Z 08005KT 19/16 A2999 RMK A01 T01910157  RH  081%=      5-min Rain = 0
KLO1 230344Z 09005KT 19/16 A2999 RMK A01 T01910157  RH  081%=      5-min Rain = 0
KLO1 230345Z 08005KT 19/16 A2999 RMK A01 T01910157  RH  081%=      5-min Rain = 0
KLO1 230346Z 08004KT 19/16 A2999 RMK A01 T01910157  RH  081%=      5-min Rain = 0
KLO1 230347Z 08005KT 19/16 A2999 RMK A01 T01900157  RH  081%=      5-min Rain = 0
KLO1 230348Z 08005KT 19/16 A2999 RMK A01 T01900157  RH  081%=      5-min Rain = 0
KLO1 230349Z 09005KT 19/16 A2999 RMK A01 T01900157  RH  081%=      5-min Rain = 0
KLO1 230350Z 09005KT 19/16 A2999 RMK A01 T01900157  RH  081%=      5-min Rain = 0
KLO1 230351Z 09005KT 19/16 A2999 RMK A01 T01900157  RH  081%=      5-min Rain = 0
KLO1 230352Z 09005KT 19/16 A2999 RMK A01 T01900157  RH  081%=      5-min Rain = 0
KLO1 230353Z 09005KT 19/16 A2999 RMK A01 T01900157  RH  081%=      5-min Rain = 0
KLO1 230354Z 09004KT 19/16 A2999 RMK A01 T01900157  RH  081%=      5-min Rain = 0
KLO1 230355Z 09004KT 19/16 A2999 RMK A01 T01900157  RH  081%=      5-min Rain = 0
KLO1 230356Z 09004KT 19/16 A2999 RMK A01 T01900157  RH  081%=      5-min Rain = 0
KLO1 230357Z 09004KT 19/16 A2999 RMK A01 T01890157  RH  081%=      5-min Rain = 0
KLO1 230358Z 09004KT 19/16 A2999 RMK A01 T01900157  RH  081%=      5-min Rain = 0
KLO1 230359Z 09004KT 19/16 A2999 RMK A01 T01900157  RH  081%=      5-min Rain = 0
KLO1 230400Z 09004KT 19/16 A2999 RMK A01 T01900157  RH  081%=      5-min Rain = 0
KLO1 230401Z 09004KT 19/16 A2999 RMK A01 T01900157  RH  081%=      5-min Rain = 0
KLO1 230402Z 09004KT 19/16 A2999 RMK A01 T01900158  RH  081%=      5-min Rain = 0
KLO1 230403Z 09004KT 19/16 A2999 RMK A01 T01900158  RH  081%=      5-min Rain = 0
KLO1 230404Z 09004KT 19/16 A2999 RMK A01 T01910158  RH  081%=      5-min Rain = 0
KLO1 230405Z 09004KT 19/16 A2999 RMK A01 T01900158  RH  081%=      5-min Rain = 0
KLO1 230406Z 09003KT 19/16 A2999 RMK A01 T01910158  RH  081%=      5-min Rain = 0
KLO1 230407Z 09004KT 19/16 A2999 RMK A01 T01910158  RH  081%=      5-min Rain = 0
KLO1 230408Z 09004KT 19/16 A2999 RMK A01 T01900158  RH  081%=      5-min Rain = 0
KLO1 230409Z 08004KT 19/16 A2999 RMK A01 T01900158  RH  081%=      5-min Rain = 0
KLO1 230410Z 08004KT 19/16 A2999 RMK A01 T01910158  RH  081%=      5-min Rain = 0
KLO1 230411Z 08004KT 19/16 A2999 RMK A01 T01910158  RH  081%=      5-min Rain = 0
KLO1 230412Z 08004KT 19/16 A2999 RMK A01 T01910158  RH  081%=      5-min Rain = 0
KLO1 230413Z 08004KT 19/16 A2999 RMK A01 T01900157  RH  081%=      5-min Rain = 0
KLO1 230414Z 08005KT 19/16 A2999 RMK A01 T01900157  RH  081%=      5-min Rain = 0
KLO1 230415Z 08005KT 19/16 A2999 RMK A01 T01910157  RH  081%=      5-min Rain = 0
KLO1 230416Z 08005KT 19/16 A2999 RMK A01 T01910157  RH  081%=      5-min Rain = 0
KLO1 230417Z 08004KT 19/16 A2998 RMK A01 T01910157  RH  081%=      5-min Rain = 0
KLO1 230418Z 08005KT 19/16 A2998 RMK A01 T01910157  RH  081%=      5-min Rain = 0
KLO1 230419Z 08005KT 19/16 A2998 RMK A01 T01910157  RH  080%=      5-min Rain = 0
KLO1 230420Z 07005KT 19/16 A2998 RMK A01 T01910157  RH  080%=      5-min Rain = 0
KLO1 230421Z 07005KT 19/16 A2998 RMK A01 T01920157  RH  080%=      5-min Rain = 0
KLO1 230422Z 07005KT 19/16 A2998 RMK A01 T01920156  RH  080%=      5-min Rain = 0
KLO1 230423Z 08005KT 19/16 A2998 RMK A01 T01920156  RH  080%=      5-min Rain = 0
KLO1 230424Z 07005KT 19/16 A2998 RMK A01 T01920156  RH  079%=      5-min Rain = 0
KLO1 230425Z 07005KT 19/16 A2998 RMK A01 T01930156  RH  079%=      5-min Rain = 0
KLO1 230426Z 07005KT 19/16 A2998 RMK A01 T01930156  RH  079%=      5-min Rain = 0
KLO1 230427Z 07006KT 19/16 A2998 RMK A01 T01930156  RH  079%=      5-min Rain = 0
KLO1 230428Z 07006KT 19/16 A2998 RMK A01 T01920156  RH  079%=      5-min Rain = 0
KLO1 230429Z 07006KT 19/16 A2998 RMK A01 T01920156  RH  079%=      5-min Rain = 0
KLO1 230430Z 06005KT 19/16 A2998 RMK A01 T01920156  RH  080%=      5-min Rain = 0
KLO1 230431Z 06005KT 19/16 A2998 RMK A01 T01910155  RH  080%=      5-min Rain = 0
KLO1 230432Z 06005KT 19/16 A2998 RMK A01 T01910155  RH  080%=      5-min Rain = 0
KLO1 230433Z 06007KT 19/16 A2998 RMK A01 T01900155  RH  080%=      5-min Rain = 0
KLO1 230434Z 06007KT 19/15 A2998 RMK A01 T01890154  RH  080%=      5-min Rain = 0
KLO1 230435Z 06007KT 19/15 A2998 RMK A01 T01890154  RH  080%=      5-min Rain = 0
KLO1 230436Z 06008KT 19/15 A2998 RMK A01 T01880153  RH  080%=      5-min Rain = 0
KLO1 230437Z 06006KT 19/15 A2998 RMK A01 T01890153  RH  080%=      5-min Rain = 0
KLO1 230438Z 06006KT 19/15 A2998 RMK A01 T01890154  RH  080%=      5-min Rain = 0
KLO1 230439Z 06005KT 19/15 A2998 RMK A01 T01890154  RH  080%=      5-min Rain = 0
KLO1 230440Z 05006KT 19/15 A2998 RMK A01 T01890154  RH  080%=      5-min Rain = 0
KLO1 230441Z 06006KT 19/15 A2999 RMK A01 T01890154  RH  080%=      5-min Rain = 0
KLO1 230442Z 05006KT 19/15 A2999 RMK A01 T01880153  RH  080%=      5-min Rain = 0
KLO1 230443Z 05007KT 19/15 A2999 RMK A01 T01880153  RH  080%=      5-min Rain = 0
KLO1 230444Z 05008KT 19/15 A2999 RMK A01 T01880152  RH  080%=      5-min Rain = 0
KLO1 230445Z 05007KT 19/15 A2999 RMK A01 T01880152  RH  080%=      5-min Rain = 0
KLO1 230446Z 05007KT 19/15 A2999 RMK A01 T01880152  RH  080%=      5-min Rain = 0
KLO1 230447Z 06007KT 19/15 A2999 RMK A01 T01880152  RH  080%=      5-min Rain = 0
KLO1 230448Z 06005KT 19/15 A2999 RMK A01 T01880152  RH  080%=      5-min Rain = 0
KLO1 230449Z 06007KT 19/15 A2999 RMK A01 T01880153  RH  080%=      5-min Rain = 0
KLO1 230450Z 06007KT 19/15 A2999 RMK A01 T01880153  RH  080%=      5-min Rain = 0
KLO1 230451Z 07006KT 19/15 A2999 RMK A01 T01880153  RH  080%=      5-min Rain = 0
KLO1 230452Z 07005KT 19/15 A2999 RMK A01 T01880153  RH  080%=      5-min Rain = 0
KLO1 230453Z 08005KT 19/15 A2999 RMK A01 T01880153  RH  080%=      5-min Rain = 0
KLO1 230454Z 08005KT 19/15 A2999 RMK A01 T01880153  RH  080%=      5-min Rain = 0
KLO1 230455Z 07005KT 19/15 A2999 RMK A01 T01880154  RH  081%=      5-min Rain = 0
KLO1 230456Z 07007KT 19/15 A2999 RMK A01 T01880154  RH  081%=      5-min Rain = 0
KLO1 230457Z 07007KT 19/15 A2999 RMK A01 T01880153  RH  080%=      5-min Rain = 0
KLO1 230458Z 07006KT 19/15 A2999 RMK A01 T01880153  RH  080%=      5-min Rain = 0
KLO1 230459Z 07005KT 19/15 A2999 RMK A01 T01880153  RH  080%=      5-min Rain = 0

Page generated in 0.1786 seconds.